Time,TemperatureF,DewpointF,PressureIn,WindDirection,WindDirectionDegrees,WindSpeedMPH,WindSpeedGustMPH,Humidity,HourlyPrecipIn,Conditions,Clouds,dailyrainin,SoftwareType,DateUTC
2013-03-15 00:00:00,34.1,30.1,29.29,West,260,7.0,12.0,85,0.00,,,0.00,WUHU216DAVISVP2,2013-03-15 04:00:00,
2013-03-15 00:05:00,34.1,30.1,29.29,West,260,5.0,12.0,85,0.00,,,0.00,WUHU216DAVISVP2,2013-03-15 04:05:00,
2013-03-15 00:10:00,34.1,30.4,29.28,WSW,243,4.0,11.0,86,0.00,,,0.00,WUHU216DAVISVP2,2013-03-15 04:10:00,
2013-03-15 00:15:00,34.0,30.2,29.28,WSW,258,1.0,11.0,86,0.00,,,0.00,WUHU216DAVISVP2,2013-03-15 04:15:00,
2013-03-15 00:20:00,33.9,30.1,29.28,WSW,253,6.0,11.0,86,0.00,,,0.00,WUHU216DAVISVP2,2013-03-15 04:20:00,
2013-03-15 00:21:00,34.0,30.2,29.28,WSW,257,8.0,11.0,86,0.00,,,0.00,WUHU216DAVISVP2,2013-03-15 04:21:00,
2013-03-15 00:25:00,33.9,30.1,29.28,WSW,254,5.0,11.0,86,0.00,,,0.00,WUHU216DAVISVP2,2013-03-15 04:25:00,
2013-03-15 00:26:00,33.9,30.1,29.28,WSW,254,6.0,11.0,86,0.00,,,0.00,WUHU216DAVISVP2,2013-03-15 04:26:00,
2013-03-15 00:27:00,33.9,30.1,29.28,WSW,254,5.0,11.0,86,0.00,,,0.00,WUHU216DAVISVP2,2013-03-15 04:27:00,
2013-03-15 00:30:00,33.8,30.3,29.29,West,274,7.0,10.0,87,0.00,,,0.00,WUHU216DAVISVP2,2013-03-15 04:30:00,
2013-03-15 00:31:00,33.8,30.3,29.29,West,259,7.0,10.0,87,0.00,,,0.00,WUHU216DAVISVP2,2013-03-15 04:31:00,
2013-03-15 00:32:00,33.8,30.0,29.29,West,259,4.0,10.0,86,0.00,,,0.00,WUHU216DAVISVP2,2013-03-15 04:32:00,
2013-03-15 00:36:00,33.8,30.3,29.28,WSW,258,3.0,10.0,87,0.00,,,0.00,WUHU216DAVISVP2,2013-03-15 04:36:00,
2013-03-15 00:37:00,33.8,30.3,29.28,West,267,5.0,10.0,87,0.00,,,0.00,WUHU216DAVISVP2,2013-03-15 04:37:00,
2013-03-15 00:41:00,33.7,30.2,29.28,West,266,4.0,9.0,87,0.00,,,0.00,WUHU216DAVISVP2,2013-03-15 04:41:00,
2013-03-15 00:44:00,33.5,30.0,29.28,West,259,5.0,9.0,87,0.00,,,0.00,WUHU216DAVISVP2,2013-03-15 04:44:00,
2013-03-15 00:46:00,33.5,30.0,29.28,WSW,258,5.0,9.0,87,0.00,,,0.00,WUHU216DAVISVP2,2013-03-15 04:46:00,
2013-03-15 00:47:00,33.5,30.0,29.28,WSW,258,6.0,9.0,87,0.00,,,0.00,WUHU216DAVISVP2,2013-03-15 04:47:00,
2013-03-15 00:49:00,33.5,30.0,29.28,WSW,256,6.0,9.0,87,0.00,,,0.00,WUHU216DAVISVP2,2013-03-15 04:49:00,
2013-03-15 00:52:00,33.4,29.9,29.28,WSW,258,5.0,9.0,87,0.00,,,0.00,WUHU216DAVISVP2,2013-03-15 04:52:00,
2013-03-15 00:55:00,33.4,30.2,29.28,West,268,6.0,9.0,88,0.00,,,0.00,WUHU216DAVISVP2,2013-03-15 04:55:00,
2013-03-15 00:57:00,33.3,30.1,29.28,West,268,5.0,9.0,88,0.00,,,0.00,WUHU216DAVISVP2,2013-03-15 04:57:00,
2013-03-15 01:00:00,33.3,30.1,29.28,WSW,256,6.0,9.0,88,0.00,,,0.00,WUHU216DAVISVP2,2013-03-15 05:00:00,
2013-03-15 01:02:00,33.3,30.1,29.28,WSW,255,6.0,9.0,88,0.00,,,0.00,WUHU216DAVISVP2,2013-03-15 05:02:00,
2013-03-15 01:05:00,33.2,30.0,29.28,West,259,8.0,9.0,88,0.00,,,0.00,WUHU216DAVISVP2,2013-03-15 05:05:00,
2013-03-15 01:07:00,33.2,30.0,29.28,West,279,7.0,9.0,88,0.00,,,0.00,WUHU216DAVISVP2,2013-03-15 05:07:00,
2013-03-15 01:10:00,33.2,30.0,29.28,West,262,5.0,9.0,88,0.00,,,0.00,WUHU216DAVISVP2,2013-03-15 05:10:00,
2013-03-15 01:12:00,33.2,30.3,29.28,West,274,5.0,9.0,89,0.00,,,0.00,WUHU216DAVISVP2,2013-03-15 05:12:00,
2013-03-15 01:13:00,33.2,30.3,29.28,West,264,8.0,9.0,89,0.00,,,0.00,WUHU216DAVISVP2,2013-03-15 05:13:00,
2013-03-15 01:15:00,33.2,30.3,29.27,West,261,6.0,9.0,89,0.00,,,0.00,WUHU216DAVISVP2,2013-03-15 05:15:00,
2013-03-15 01:18:00,33.2,30.3,29.28,WSW,244,11.0,12.0,89,0.00,,,0.00,WUHU216DAVISVP2,2013-03-15 05:18:00,
2013-03-15 01:20:00,33.3,30.4,29.28,West,268,8.0,16.0,89,0.00,,,0.00,WUHU216DAVISVP2,2013-03-15 05:20:00,
2013-03-15 01:23:00,33.3,30.4,29.28,WSW,258,10.0,16.0,89,0.00,,,0.00,WUHU216DAVISVP2,2013-03-15 05:23:00,
2013-03-15 01:24:00,33.3,30.4,29.28,WSW,254,12.0,16.0,89,0.00,,,0.00,WUHU216DAVISVP2,2013-03-15 05:24:00,
2013-03-15 01:25:00,33.3,30.4,29.28,West,273,8.0,16.0,89,0.00,,,0.00,WUHU216DAVISVP2,2013-03-15 05:25:00,
2013-03-15 01:28:00,33.3,30.4,29.28,WSW,254,12.0,16.0,89,0.00,,,0.00,WUHU216DAVISVP2,2013-03-15 05:28:00,
2013-03-15 01:29:00,33.3,30.4,29.28,West,263,6.0,16.0,89,0.00,,,0.00,WUHU216DAVISVP2,2013-03-15 05:29:00,
2013-03-15 01:31:00,33.3,30.4,29.28,West,262,8.0,16.0,89,0.00,,,0.00,WUHU216DAVISVP2,2013-03-15 05:31:00,
2013-03-15 01:33:00,33.2,30.5,29.28,West,268,8.0,16.0,90,0.00,,,0.00,WUHU216DAVISVP2,2013-03-15 05:33:00,
2013-03-15 01:34:00,33.2,30.5,29.28,West,270,7.0,16.0,90,0.00,,,0.00,WUHU216DAVISVP2,2013-03-15 05:34:00,
2013-03-15 01:36:00,33.2,30.5,29.28,West,269,6.0,16.0,90,0.00,,,0.00,WUHU216DAVISVP2,2013-03-15 05:36:00,
2013-03-15 01:38:00,33.2,30.5,29.28,WSW,255,9.0,16.0,90,0.00,,,0.00,WUHU216DAVISVP2,2013-03-15 05:38:00,
2013-03-15 01:39:00,33.3,30.6,29.27,West,281,4.0,15.0,90,0.00,,,0.00,WUHU216DAVISVP2,2013-03-15 05:39:00,
2013-03-15 01:41:00,33.2,30.5,29.27,West,259,8.0,14.0,90,0.00,,,0.00,WUHU216DAVISVP2,2013-03-15 05:41:00,
2013-03-15 01:43:00,33.3,30.6,29.27,West,273,12.0,14.0,90,0.00,,,0.00,WUHU216DAVISVP2,2013-03-15 05:43:00,
2013-03-15 01:44:00,33.3,30.6,29.27,West,274,11.0,14.0,90,0.00,,,0.00,WUHU216DAVISVP2,2013-03-15 05:44:00,
2013-03-15 01:46:00,33.3,30.6,29.27,West,267,6.0,14.0,90,0.00,,,0.00,WUHU216DAVISVP2,2013-03-15 05:46:00,
2013-03-15 01:48:00,33.3,30.6,29.27,WSW,258,7.0,14.0,90,0.00,,,0.00,WUHU216DAVISVP2,2013-03-15 05:48:00,
2013-03-15 01:49:00,33.3,30.6,29.27,WSW,258,6.0,14.0,90,0.00,,,0.00,WUHU216DAVISVP2,2013-03-15 05:49:00,
2013-03-15 01:52:00,33.4,30.7,29.26,West,260,5.0,14.0,90,0.00,,,0.00,WUHU216DAVISVP2,2013-03-15 05:52:00,
2013-03-15 01:54:00,33.4,30.7,29.26,West,262,6.0,14.0,90,0.00,,,0.00,WUHU216DAVISVP2,2013-03-15 05:54:00,
2013-03-15 01:57:00,33.4,30.7,29.26,West,270,5.0,15.0,90,0.00,,,0.00,WUHU216DAVISVP2,2013-03-15 05:57:00,
2013-03-15 01:59:00,33.4,30.7,29.26,WSW,239,2.0,15.0,90,0.00,,,0.00,WUHU216DAVISVP2,2013-03-15 05:59:00,
2013-03-15 02:00:00,33.4,30.7,29.26,WSW,250,8.0,15.0,90,0.00,,,0.00,WUHU216DAVISVP2,2013-03-15 06:00:00,
2013-03-15 02:02:00,33.4,30.7,29.26,WSW,245,10.0,15.0,90,0.00,,,0.00,WUHU216DAVISVP2,2013-03-15 06:02:00,
2013-03-15 02:04:00,33.4,30.7,29.25,WSW,253,2.0,15.0,90,0.00,,,0.00,WUHU216DAVISVP2,2013-03-15 06:04:00,
2013-03-15 02:05:00,33.4,30.7,29.25,SW,225,4.0,15.0,90,0.00,,,0.00,WUHU216DAVISVP2,2013-03-15 06:05:00,
2013-03-15 02:07:00,33.4,30.7,29.25,West,271,9.0,15.0,90,0.00,,,0.00,WUHU216DAVISVP2,2013-03-15 06:07:00,
2013-03-15 02:09:00,33.4,30.7,29.25,West,259,8.0,15.0,90,0.00,,,0.00,WUHU216DAVISVP2,2013-03-15 06:09:00,
2013-03-15 02:10:00,33.4,30.7,29.25,West,260,6.0,15.0,90,0.00,,,0.00,WUHU216DAVISVP2,2013-03-15 06:10:00,
2013-03-15 02:13:00,33.4,30.7,29.25,WSW,250,4.0,15.0,90,0.00,,,0.00,WUHU216DAVISVP2,2013-03-15 06:13:00,
2013-03-15 02:14:00,33.4,30.7,29.25,West,261,5.0,15.0,90,0.00,,,0.00,WUHU216DAVISVP2,2013-03-15 06:14:00,
2013-03-15 02:15:00,33.4,30.7,29.25,West,261,6.0,12.0,90,0.00,,,0.00,WUHU216DAVISVP2,2013-03-15 06:15:00,
2013-03-15 02:18:00,33.4,30.7,29.25,WSW,248,5.0,12.0,90,0.00,,,0.00,WUHU216DAVISVP2,2013-03-15 06:18:00,
2013-03-15 02:19:00,33.4,30.7,29.25,WSW,248,1.0,12.0,90,0.00,,,0.00,WUHU216DAVISVP2,2013-03-15 06:19:00,
2013-03-15 02:20:00,33.4,30.7,29.25,WSW,248,1.0,12.0,90,0.00,,,0.00,WUHU216DAVISVP2,2013-03-15 06:20:00,
2013-03-15 02:23:00,33.4,30.7,29.25,SW,218,1.0,12.0,90,0.00,,,0.00,WUHU216DAVISVP2,2013-03-15 06:23:00,
2013-03-15 02:24:00,33.3,30.6,29.25,WSW,253,8.0,12.0,90,0.00,,,0.00,WUHU216DAVISVP2,2013-03-15 06:24:00,
2013-03-15 02:25:00,33.3,30.6,29.25,SW,228,4.0,12.0,90,0.00,,,0.00,WUHU216DAVISVP2,2013-03-15 06:25:00,
2013-03-15 02:28:00,33.3,30.6,29.25,WSW,249,0.0,11.0,90,0.00,,,0.00,WUHU216DAVISVP2,2013-03-15 06:28:00,
2013-03-15 02:29:00,33.3,30.6,29.25,WSW,249,4.0,11.0,90,0.00,,,0.00,WUHU216DAVISVP2,2013-03-15 06:29:00,
2013-03-15 02:30:00,33.3,30.6,29.25,WSW,249,5.0,11.0,90,0.00,,,0.00,WUHU216DAVISVP2,2013-03-15 06:30:00,
2013-03-15 02:33:00,33.2,30.5,29.25,WSW,249,1.0,11.0,90,0.00,,,0.00,WUHU216DAVISVP2,2013-03-15 06:33:00,
2013-03-15 02:34:00,33.2,30.5,29.25,WSW,249,0.0,11.0,90,0.00,,,0.00,WUHU216DAVISVP2,2013-03-15 06:34:00,
2013-03-15 02:35:00,33.2,30.5,29.25,WSW,249,1.0,11.0,90,0.00,,,0.00,WUHU216DAVISVP2,2013-03-15 06:35:00,
2013-03-15 02:38:00,33.1,30.4,29.25,WNW,293,0.0,11.0,90,0.00,,,0.00,WUHU216DAVISVP2,2013-03-15 06:38:00,
2013-03-15 02:39:00,33.2,30.5,29.25,WNW,292,2.0,11.0,90,0.00,,,0.00,WUHU216DAVISVP2,2013-03-15 06:39:00,
2013-03-15 02:40:00,33.1,30.7,29.25,WNW,292,4.0,11.0,91,0.00,,,0.00,WUHU216DAVISVP2,2013-03-15 06:40:00,
2013-03-15 02:41:00,33.1,30.7,29.25,WNW,292,4.0,9.0,91,0.00,,,0.00,WUHU216DAVISVP2,2013-03-15 06:41:00,
2013-03-15 02:43:00,33.1,30.7,29.25,WSW,247,8.0,10.0,91,0.00,,,0.00,WUHU216DAVISVP2,2013-03-15 06:43:00,
2013-03-15 02:44:00,33.1,30.7,29.24,WSW,244,1.0,10.0,91,0.00,,,0.00,WUHU216DAVISVP2,2013-03-15 06:44:00,
2013-03-15 02:45:00,33.1,30.7,29.25,WSW,244,2.0,10.0,91,0.00,,,0.00,WUHU216DAVISVP2,2013-03-15 06:45:00,
2013-03-15 02:46:00,33.1,30.7,29.24,WSW,244,4.0,10.0,91,0.00,,,0.00,WUHU216DAVISVP2,2013-03-15 06:46:00,
2013-03-15 02:48:00,33.1,30.7,29.25,WSW,244,5.0,10.0,91,0.00,,,0.00,WUHU216DAVISVP2,2013-03-15 06:48:00,
2013-03-15 02:49:00,33.0,30.6,29.24,WSW,243,8.0,10.0,91,0.00,,,0.00,WUHU216DAVISVP2,2013-03-15 06:49:00,
2013-03-15 02:50:00,33.1,30.4,29.24,WSW,243,6.0,10.0,90,0.00,,,0.00,WUHU216DAVISVP2,2013-03-15 06:50:00,
2013-03-15 02:51:00,33.0,30.6,29.24,WSW,238,1.0,10.0,91,0.00,,,0.00,WUHU216DAVISVP2,2013-03-15 06:51:00,
2013-03-15 02:53:00,33.0,30.6,29.24,WSW,238,2.0,10.0,91,0.00,,,0.00,WUHU216DAVISVP2,2013-03-15 06:53:00,
2013-03-15 02:54:00,33.0,30.6,29.24,WSW,237,2.0,10.0,91,0.00,,,0.00,WUHU216DAVISVP2,2013-03-15 06:54:00,
2013-03-15 02:55:00,33.0,30.6,29.24,WSW,238,5.0,10.0,91,0.00,,,0.00,WUHU216DAVISVP2,2013-03-15 06:55:00,
2013-03-15 02:57:00,32.9,30.5,29.24,WSW,237,4.0,10.0,91,0.00,,,0.00,WUHU216DAVISVP2,2013-03-15 06:57:00,
2013-03-15 02:58:00,32.9,30.5,29.24,WSW,249,0.0,10.0,91,0.00,,,0.00,WUHU216DAVISVP2,2013-03-15 06:58:00,
2013-03-15 03:00:00,32.9,30.5,29.24,WSW,249,3.0,10.0,91,0.00,,,0.00,WUHU216DAVISVP2,2013-03-15 07:00:00,
2013-03-15 03:02:00,32.9,30.5,29.24,WSW,257,2.0,9.0,91,0.00,,,0.00,WUHU216DAVISVP2,2013-03-15 07:02:00,
2013-03-15 03:04:00,32.8,30.4,29.24,WSW,257,2.0,9.0,91,0.00,,,0.00,WUHU216DAVISVP2,2013-03-15 07:04:00,
2013-03-15 03:05:00,32.8,30.5,29.24,WSW,257,2.0,9.0,91,0.00,,,0.00,WUHU216DAVISVP2,2013-03-15 07:05:00,
2013-03-15 03:08:00,32.8,30.5,29.24,WSW,257,0.0,9.0,91,0.00,,,0.00,WUHU216DAVISVP2,2013-03-15 07:08:00,
2013-03-15 03:09:00,32.8,30.5,29.24,WSW,257,1.0,9.0,91,0.00,,,0.00,WUHU216DAVISVP2,2013-03-15 07:09:00,
2013-03-15 03:10:00,32.7,30.4,29.24,WSW,257,1.0,9.0,91,0.00,,,0.00,WUHU216DAVISVP2,2013-03-15 07:10:00,
2013-03-15 03:13:00,32.7,30.4,29.24,WSW,257,2.0,9.0,91,0.00,,,0.00,WUHU216DAVISVP2,2013-03-15 07:13:00,
2013-03-15 03:14:00,32.7,30.4,29.24,WSW,257,3.0,9.0,91,0.00,,,0.00,WUHU216DAVISVP2,2013-03-15 07:14:00,
2013-03-15 03:15:00,32.6,30.3,29.24,WSW,257,4.0,7.0,91,0.00,,,0.00,WUHU216DAVISVP2,2013-03-15 07:15:00,
2013-03-15 03:18:00,32.6,30.3,29.24,WSW,257,2.0,6.0,91,0.00,,,0.00,WUHU216DAVISVP2,2013-03-15 07:18:00,
2013-03-15 03:19:00,32.6,30.3,29.23,WSW,257,1.0,6.0,91,0.00,,,0.00,WUHU216DAVISVP2,2013-03-15 07:19:00,
2013-03-15 03:20:00,32.6,30.3,29.23,WSW,257,2.0,6.0,91,0.00,,,0.00,WUHU216DAVISVP2,2013-03-15 07:20:00,
2013-03-15 03:23:00,32.5,30.2,29.23,WSW,257,1.0,6.0,91,0.00,,,0.00,WUHU216DAVISVP2,2013-03-15 07:23:00,
2013-03-15 03:24:00,32.5,30.2,29.23,WSW,257,1.0,6.0,91,0.00,,,0.00,WUHU216DAVISVP2,2013-03-15 07:24:00,
2013-03-15 03:25:00,32.5,30.1,29.23,WSW,257,1.0,6.0,91,0.00,,,0.00,WUHU216DAVISVP2,2013-03-15 07:25:00,
2013-03-15 03:28:00,32.5,30.1,29.23,WSW,256,5.0,7.0,91,0.00,,,0.00,WUHU216DAVISVP2,2013-03-15 07:28:00,
2013-03-15 03:29:00,32.5,30.1,29.23,WSW,256,6.0,7.0,91,0.00,,,0.00,WUHU216DAVISVP2,2013-03-15 07:29:00,
2013-03-15 03:30:00,32.5,30.2,29.23,WSW,256,2.0,7.0,91,0.00,,,0.00,WUHU216DAVISVP2,2013-03-15 07:30:00,
2013-03-15 03:34:00,32.4,30.0,29.23,WSW,256,5.0,7.0,91,0.00,,,0.00,WUHU216DAVISVP2,2013-03-15 07:34:00,
2013-03-15 03:35:00,32.4,30.0,29.23,WSW,256,5.0,7.0,91,0.00,,,0.00,WUHU216DAVISVP2,2013-03-15 07:35:00,
2013-03-15 03:36:00,32.4,30.0,29.23,WSW,256,5.0,7.0,91,0.00,,,0.00,WUHU216DAVISVP2,2013-03-15 07:36:00,
2013-03-15 03:39:00,32.4,30.0,29.23,WSW,249,9.0,9.0,91,0.00,,,0.00,WUHU216DAVISVP2,2013-03-15 07:39:00,
2013-03-15 03:41:00,32.4,30.0,29.23,WSW,247,4.0,9.0,91,0.00,,,0.00,WUHU216DAVISVP2,2013-03-15 07:41:00,
2013-03-15 03:44:00,32.4,30.3,29.23,WSW,243,6.0,9.0,92,0.00,,,0.00,WUHU216DAVISVP2,2013-03-15 07:44:00,
2013-03-15 03:46:00,32.4,30.3,29.23,WSW,243,1.0,9.0,92,0.00,,,0.00,WUHU216DAVISVP2,2013-03-15 07:46:00,
2013-03-15 03:49:00,32.4,30.3,29.23,WSW,243,7.0,9.0,92,0.00,,,0.00,WUHU216DAVISVP2,2013-03-15 07:49:00,
2013-03-15 03:50:00,32.4,30.3,29.23,WSW,243,4.0,9.0,92,0.00,,,0.00,WUHU216DAVISVP2,2013-03-15 07:50:00,
2013-03-15 03:51:00,32.4,30.3,29.23,WSW,243,4.0,9.0,92,0.00,,,0.00,WUHU216DAVISVP2,2013-03-15 07:51:00,
2013-03-15 03:54:00,32.3,30.2,29.23,WSW,244,3.0,9.0,92,0.00,,,0.00,WUHU216DAVISVP2,2013-03-15 07:54:00,
2013-03-15 03:55:00,32.4,30.0,29.23,WSW,237,4.0,9.0,91,0.00,,,0.00,WUHU216DAVISVP2,2013-03-15 07:55:00,
2013-03-15 03:56:00,32.3,29.9,29.23,WSW,237,2.0,9.0,91,0.00,,,0.00,WUHU216DAVISVP2,2013-03-15 07:56:00,
2013-03-15 03:59:00,32.3,29.9,29.22,WSW,237,2.0,8.0,91,0.00,,,0.00,WUHU216DAVISVP2,2013-03-15 07:59:00,
2013-03-15 04:00:00,32.3,29.9,29.22,WSW,237,2.0,8.0,91,0.00,,,0.00,WUHU216DAVISVP2,2013-03-15 08:00:00,
2013-03-15 04:02:00,32.3,29.9,29.22,WSW,237,0.0,8.0,91,0.00,,,0.00,WUHU216DAVISVP2,2013-03-15 08:02:00,
2013-03-15 04:05:00,32.2,29.8,29.22,SSW,210,1.0,8.0,91,0.00,,,0.00,WUHU216DAVISVP2,2013-03-15 08:05:00,
2013-03-15 04:07:00,32.1,29.7,29.22,SSW,210,0.0,8.0,91,0.00,,,0.00,WUHU216DAVISVP2,2013-03-15 08:07:00,
2013-03-15 04:10:00,32.1,29.7,29.21,SSW,210,2.0,8.0,91,0.00,,,0.00,WUHU216DAVISVP2,2013-03-15 08:10:00,
2013-03-15 04:12:00,32.0,29.7,29.21,SSW,210,4.0,8.0,91,0.00,,,0.00,WUHU216DAVISVP2,2013-03-15 08:12:00,
2013-03-15 04:13:00,32.0,29.7,29.21,SSW,210,1.0,8.0,91,0.00,,,0.00,WUHU216DAVISVP2,2013-03-15 08:13:00,
2013-03-15 04:15:00,31.9,29.8,29.21,SSW,210,4.0,8.0,92,0.00,,,0.00,WUHU216DAVISVP2,2013-03-15 08:15:00,
2013-03-15 04:17:00,31.9,29.8,29.21,SW,220,0.0,6.0,92,0.00,,,0.00,WUHU216DAVISVP2,2013-03-15 08:17:00,
2013-03-15 04:18:00,31.9,29.8,29.21,WSW,244,3.0,6.0,92,0.00,,,0.00,WUHU216DAVISVP2,2013-03-15 08:18:00,
2013-03-15 04:20:00,31.9,29.8,29.21,SW,218,5.0,8.0,92,0.00,,,0.00,WUHU216DAVISVP2,2013-03-15 08:20:00,
2013-03-15 04:22:00,31.9,29.8,29.20,WSW,237,2.0,8.0,92,0.00,,,0.00,WUHU216DAVISVP2,2013-03-15 08:22:00,
2013-03-15 04:23:00,31.9,29.8,29.20,WSW,237,1.0,8.0,92,0.00,,,0.00,WUHU216DAVISVP2,2013-03-15 08:23:00,
2013-03-15 04:25:00,31.8,29.7,29.21,SW,236,4.0,8.0,92,0.00,,,0.00,WUHU216DAVISVP2,2013-03-15 08:25:00,
2013-03-15 04:26:00,31.8,29.7,29.21,SW,236,1.0,8.0,92,0.00,,,0.00,WUHU216DAVISVP2,2013-03-15 08:26:00,
2013-03-15 04:27:00,31.8,29.7,29.21,WSW,247,7.0,8.0,92,0.00,,,0.00,WUHU216DAVISVP2,2013-03-15 08:27:00,
2013-03-15 04:28:00,31.8,29.7,29.20,WSW,247,2.0,8.0,92,0.00,,,0.00,WUHU216DAVISVP2,2013-03-15 08:28:00,
2013-03-15 04:31:00,31.8,29.7,29.20,WSW,241,6.0,8.0,92,0.00,,,0.00,WUHU216DAVISVP2,2013-03-15 08:31:00,
2013-03-15 04:32:00,31.9,29.8,29.20,WSW,244,5.0,8.0,92,0.00,,,0.00,WUHU216DAVISVP2,2013-03-15 08:32:00,
2013-03-15 04:33:00,31.8,29.7,29.20,WSW,244,3.0,8.0,92,0.00,,,0.00,WUHU216DAVISVP2,2013-03-15 08:33:00,
2013-03-15 04:36:00,31.9,29.8,29.20,WSW,249,0.0,9.0,92,0.00,,,0.00,WUHU216DAVISVP2,2013-03-15 08:36:00,
2013-03-15 04:37:00,31.9,29.8,29.20,WSW,241,1.0,9.0,92,0.00,,,0.00,WUHU216DAVISVP2,2013-03-15 08:37:00,
2013-03-15 04:38:00,31.9,29.8,29.20,WSW,241,7.0,9.0,92,0.00,,,0.00,WUHU216DAVISVP2,2013-03-15 08:38:00,
2013-03-15 04:41:00,31.9,29.8,29.20,SW,235,6.0,9.0,92,0.00,,,0.00,WUHU216DAVISVP2,2013-03-15 08:41:00,
2013-03-15 04:42:00,31.9,29.8,29.20,WSW,240,3.0,9.0,92,0.00,,,0.00,WUHU216DAVISVP2,2013-03-15 08:42:00,
2013-03-15 04:43:00,31.9,29.8,29.20,WSW,245,9.0,9.0,92,0.00,,,0.00,WUHU216DAVISVP2,2013-03-15 08:43:00,
2013-03-15 04:46:00,31.9,29.8,29.20,WSW,249,1.0,9.0,92,0.00,,,0.00,WUHU216DAVISVP2,2013-03-15 08:46:00,
2013-03-15 04:47:00,31.9,29.8,29.20,WSW,249,0.0,9.0,92,0.00,,,0.00,WUHU216DAVISVP2,2013-03-15 08:47:00,
2013-03-15 04:48:00,31.9,29.8,29.20,SSW,197,0.0,9.0,92,0.00,,,0.00,WUHU216DAVISVP2,2013-03-15 08:48:00,
2013-03-15 04:52:00,31.8,29.7,29.20,SSW,197,5.0,9.0,92,0.00,,,0.00,WUHU216DAVISVP2,2013-03-15 08:52:00,
2013-03-15 04:53:00,31.8,29.7,29.20,SSW,197,0.0,9.0,92,0.00,,,0.00,WUHU216DAVISVP2,2013-03-15 08:53:00,
2013-03-15 04:57:00,31.8,29.7,29.20,SSW,201,1.0,9.0,92,0.00,,,0.00,WUHU216DAVISVP2,2013-03-15 08:57:00,
2013-03-15 04:58:00,31.8,29.7,29.20,SW,225,2.0,9.0,92,0.00,,,0.00,WUHU216DAVISVP2,2013-03-15 08:58:00,
2013-03-15 05:02:00,31.8,29.7,29.20,SW,218,1.0,9.0,92,0.00,,,0.00,WUHU216DAVISVP2,2013-03-15 09:02:00,
2013-03-15 05:03:00,31.8,29.7,29.20,WSW,246,2.0,9.0,92,0.00,,,0.00,WUHU216DAVISVP2,2013-03-15 09:03:00,
2013-03-15 05:07:00,31.8,29.7,29.19,WSW,245,1.0,9.0,92,0.00,,,0.00,WUHU216DAVISVP2,2013-03-15 09:07:00,
2013-03-15 05:08:00,31.8,29.7,29.19,WSW,243,5.0,9.0,92,0.00,,,0.00,WUHU216DAVISVP2,2013-03-15 09:08:00,
2013-03-15 05:09:00,31.8,29.7,29.19,WSW,243,6.0,9.0,92,0.00,,,0.00,WUHU216DAVISVP2,2013-03-15 09:09:00,
2013-03-15 05:12:00,31.7,29.6,29.19,WSW,241,4.0,9.0,92,0.00,,,0.00,WUHU216DAVISVP2,2013-03-15 09:12:00,
2013-03-15 05:13:00,31.7,29.6,29.19,WSW,241,3.0,10.0,92,0.00,,,0.00,WUHU216DAVISVP2,2013-03-15 09:13:00,
2013-03-15 05:14:00,31.7,29.6,29.19,WSW,241,5.0,10.0,92,0.00,,,0.00,WUHU216DAVISVP2,2013-03-15 09:14:00,
2013-03-15 05:17:00,31.7,29.6,29.19,WSW,241,5.0,10.0,92,0.00,,,0.00,WUHU216DAVISVP2,2013-03-15 09:17:00,
2013-03-15 05:18:00,31.7,29.6,29.19,WSW,241,2.0,10.0,92,0.00,,,0.00,WUHU216DAVISVP2,2013-03-15 09:18:00,
2013-03-15 05:19:00,31.7,29.6,29.19,WSW,241,5.0,10.0,92,0.00,,,0.00,WUHU216DAVISVP2,2013-03-15 09:19:00,
2013-03-15 05:23:00,31.7,29.6,29.18,WSW,249,6.0,10.0,92,0.00,,,0.00,WUHU216DAVISVP2,2013-03-15 09:23:00,
2013-03-15 05:24:00,31.7,29.6,29.18,WSW,246,7.0,10.0,92,0.00,,,0.00,WUHU216DAVISVP2,2013-03-15 09:24:00,
2013-03-15 05:28:00,31.7,29.6,29.18,WSW,246,2.0,10.0,92,0.00,,,0.00,WUHU216DAVISVP2,2013-03-15 09:28:00,
2013-03-15 05:29:00,31.7,29.6,29.18,WSW,245,6.0,10.0,92,0.00,,,0.00,WUHU216DAVISVP2,2013-03-15 09:29:00,
2013-03-15 05:33:00,31.7,29.6,29.18,WSW,237,4.0,9.0,92,0.00,,,0.00,WUHU216DAVISVP2,2013-03-15 09:33:00,
2013-03-15 05:34:00,31.7,29.6,29.18,WSW,237,4.0,9.0,92,0.00,,,0.00,WUHU216DAVISVP2,2013-03-15 09:34:00,
2013-03-15 05:38:00,31.7,29.6,29.18,WSW,239,1.0,9.0,92,0.00,,,0.00,WUHU216DAVISVP2,2013-03-15 09:38:00,
2013-03-15 05:39:00,31.7,29.6,29.18,WSW,239,6.0,9.0,92,0.00,,,0.00,WUHU216DAVISVP2,2013-03-15 09:39:00,
2013-03-15 05:43:00,31.7,29.6,29.18,WSW,248,1.0,9.0,92,0.00,,,0.00,WUHU216DAVISVP2,2013-03-15 09:43:00,
2013-03-15 05:44:00,31.6,29.5,29.18,WSW,248,4.0,9.0,92,0.00,,,0.00,WUHU216DAVISVP2,2013-03-15 09:44:00,
2013-03-15 05:48:00,31.6,29.5,29.18,WSW,250,2.0,9.0,92,0.00,,,0.00,WUHU216DAVISVP2,2013-03-15 09:48:00,
2013-03-15 05:49:00,31.6,29.5,29.17,WSW,246,5.0,9.0,92,0.00,,,0.00,WUHU216DAVISVP2,2013-03-15 09:49:00,
2013-03-15 05:53:00,31.6,29.5,29.17,SW,230,0.0,9.0,92,0.00,,,0.00,WUHU216DAVISVP2,2013-03-15 09:53:00,
2013-03-15 05:54:00,31.6,29.5,29.17,SW,232,7.0,9.0,92,0.00,,,0.00,WUHU216DAVISVP2,2013-03-15 09:54:00,
2013-03-15 05:59:00,31.6,29.5,29.18,WSW,251,6.0,9.0,92,0.00,,,0.00,WUHU216DAVISVP2,2013-03-15 09:59:00,
2013-03-15 06:00:00,31.6,29.5,29.17,WSW,251,2.0,8.0,92,0.00,,,0.00,WUHU216DAVISVP2,2013-03-15 10:00:00,
2013-03-15 06:04:00,31.5,29.4,29.17,SW,236,2.0,8.0,92,0.00,,,0.00,WUHU216DAVISVP2,2013-03-15 10:04:00,
2013-03-15 06:05:00,31.5,29.4,29.17,SW,220,0.0,8.0,92,0.00,,,0.00,WUHU216DAVISVP2,2013-03-15 10:05:00,
2013-03-15 06:09:00,31.4,29.3,29.17,SSW,196,1.0,8.0,92,0.00,,,0.00,WUHU216DAVISVP2,2013-03-15 10:09:00,
2013-03-15 06:10:00,31.4,29.3,29.17,SSW,212,2.0,8.0,92,0.00,,,0.00,WUHU216DAVISVP2,2013-03-15 10:10:00,
2013-03-15 06:14:00,31.4,29.3,29.17,SSW,212,3.0,7.0,92,0.00,,,0.00,WUHU216DAVISVP2,2013-03-15 10:14:00,
2013-03-15 06:15:00,31.3,29.2,29.17,SSW,212,1.0,7.0,92,0.00,,,0.00,WUHU216DAVISVP2,2013-03-15 10:15:00,
2013-03-15 06:19:00,31.3,29.2,29.17,SSW,204,0.0,7.0,92,0.00,,,0.00,WUHU216DAVISVP2,2013-03-15 10:19:00,
2013-03-15 06:20:00,31.3,29.2,29.16,SSW,204,3.0,7.0,92,0.00,,,0.00,WUHU216DAVISVP2,2013-03-15 10:20:00,
2013-03-15 06:24:00,31.2,29.1,29.16,SSW,204,0.0,6.0,92,0.00,,,0.00,WUHU216DAVISVP2,2013-03-15 10:24:00,
2013-03-15 06:25:00,31.2,29.1,29.16,SSW,204,3.0,6.0,92,0.00,,,0.00,WUHU216DAVISVP2,2013-03-15 10:25:00,
2013-03-15 06:29:00,31.2,29.1,29.16,SSW,204,0.0,6.0,92,0.00,,,0.00,WUHU216DAVISVP2,2013-03-15 10:29:00,
2013-03-15 06:30:00,31.1,29.0,29.16,SSW,204,1.0,6.0,92,0.00,,,0.00,WUHU216DAVISVP2,2013-03-15 10:30:00,
2013-03-15 06:35:00,31.1,29.0,29.16,SSW,208,1.0,8.0,92,0.00,,,0.00,WUHU216DAVISVP2,2013-03-15 10:35:00,
2013-03-15 06:40:00,31.0,28.9,29.16,SW,225,4.0,8.0,92,0.00,,,0.00,WUHU216DAVISVP2,2013-03-15 10:40:00,
2013-03-15 06:45:00,31.1,29.0,29.16,SW,230,2.0,8.0,92,0.00,,,0.00,WUHU216DAVISVP2,2013-03-15 10:45:00,
2013-03-15 06:46:00,31.1,29.0,29.16,WSW,254,7.0,8.0,92,0.00,,,0.00,WUHU216DAVISVP2,2013-03-15 10:46:00,
2013-03-15 06:50:00,31.1,29.0,29.16,SW,216,1.0,7.0,92,0.00,,,0.00,WUHU216DAVISVP2,2013-03-15 10:50:00,
2013-03-15 06:51:00,31.1,29.0,29.16,WSW,242,3.0,7.0,92,0.00,,,0.00,WUHU216DAVISVP2,2013-03-15 10:51:00,
2013-03-15 06:55:00,31.1,29.0,29.16,SW,219,1.0,9.0,92,0.00,,,0.00,WUHU216DAVISVP2,2013-03-15 10:55:00,
2013-03-15 06:56:00,31.1,29.0,29.16,SW,218,0.0,9.0,92,0.00,,,0.00,WUHU216DAVISVP2,2013-03-15 10:56:00,
2013-03-15 07:00:00,31.0,28.9,29.16,SW,230,4.0,9.0,92,0.00,,,0.00,WUHU216DAVISVP2,2013-03-15 11:00:00,
2013-03-15 07:01:00,31.0,28.9,29.16,SW,214,2.0,9.0,92,0.00,,,0.00,WUHU216DAVISVP2,2013-03-15 11:01:00,
2013-03-15 07:02:00,31.1,29.0,29.15,WSW,249,4.0,9.0,92,0.00,,,0.00,WUHU216DAVISVP2,2013-03-15 11:02:00,
2013-03-15 07:05:00,31.1,29.0,29.15,WSW,244,5.0,9.0,92,0.00,,,0.00,WUHU216DAVISVP2,2013-03-15 11:05:00,
2013-03-15 07:07:00,31.1,29.0,29.15,SW,231,2.0,9.0,92,0.00,,,0.00,WUHU216DAVISVP2,2013-03-15 11:07:00,
2013-03-15 07:08:00,31.1,29.0,29.15,WSW,245,5.0,9.0,92,0.00,,,0.00,WUHU216DAVISVP2,2013-03-15 11:08:00,
2013-03-15 07:10:00,31.1,29.0,29.15,SSW,197,1.0,9.0,92,0.00,,,0.00,WUHU216DAVISVP2,2013-03-15 11:10:00,
2013-03-15 07:12:00,31.0,28.9,29.15,SSW,199,1.0,9.0,92,0.00,,,0.00,WUHU216DAVISVP2,2013-03-15 11:12:00,
2013-03-15 07:13:00,31.0,28.9,29.15,SSW,206,0.0,9.0,92,0.00,,,0.00,WUHU216DAVISVP2,2013-03-15 11:13:00,
2013-03-15 07:15:00,31.0,28.9,29.15,SW,229,5.0,9.0,92,0.00,,,0.00,WUHU216DAVISVP2,2013-03-15 11:15:00,
2013-03-15 07:16:00,31.0,28.9,29.15,SW,229,1.0,9.0,92,0.00,,,0.00,WUHU216DAVISVP2,2013-03-15 11:16:00,
2013-03-15 07:17:00,31.0,28.9,29.15,SW,215,1.0,9.0,92,0.00,,,0.00,WUHU216DAVISVP2,2013-03-15 11:17:00,
2013-03-15 07:19:00,30.9,28.8,29.15,SSW,213,0.0,9.0,92,0.00,,,0.00,WUHU216DAVISVP2,2013-03-15 11:19:00,
2013-03-15 07:21:00,30.9,28.8,29.15,SW,220,5.0,7.0,92,0.00,,,0.00,WUHU216DAVISVP2,2013-03-15 11:21:00,
2013-03-15 07:22:00,30.9,28.8,29.15,SSW,192,0.0,7.0,92,0.00,,,0.00,WUHU216DAVISVP2,2013-03-15 11:22:00,
2013-03-15 07:24:00,30.9,28.8,29.15,WSW,237,7.0,9.0,92,0.00,,,0.00,WUHU216DAVISVP2,2013-03-15 11:24:00,
2013-03-15 07:26:00,31.0,28.9,29.15,WSW,245,3.0,11.0,92,0.00,,,0.00,WUHU216DAVISVP2,2013-03-15 11:26:00,
2013-03-15 07:27:00,31.0,28.9,29.15,WSW,245,5.0,11.0,92,0.00,,,0.00,WUHU216DAVISVP2,2013-03-15 11:27:00,
2013-03-15 07:29:00,31.0,28.9,29.15,WSW,246,5.0,11.0,92,0.00,,,0.00,WUHU216DAVISVP2,2013-03-15 11:29:00,
2013-03-15 07:32:00,31.0,28.9,29.15,WSW,245,3.0,11.0,92,0.00,,,0.00,WUHU216DAVISVP2,2013-03-15 11:32:00,
2013-03-15 07:34:00,31.0,28.9,29.15,SW,224,4.0,11.0,92,0.00,,,0.00,WUHU216DAVISVP2,2013-03-15 11:34:00,
2013-03-15 07:37:00,31.0,28.9,29.15,SW,234,2.0,11.0,92,0.00,,,0.00,WUHU216DAVISVP2,2013-03-15 11:37:00,
2013-03-15 07:39:00,31.0,28.9,29.15,SW,222,5.0,11.0,92,0.00,,,0.00,WUHU216DAVISVP2,2013-03-15 11:39:00,
2013-03-15 07:42:00,31.0,28.9,29.14,WSW,244,1.0,11.0,92,0.00,,,0.00,WUHU216DAVISVP2,2013-03-15 11:42:00,
2013-03-15 07:44:00,31.0,28.9,29.14,WSW,241,0.0,11.0,92,0.00,,,0.00,WUHU216DAVISVP2,2013-03-15 11:44:00,
2013-03-15 07:47:00,31.0,28.9,29.14,WSW,243,2.0,8.0,92,0.00,,,0.00,WUHU216DAVISVP2,2013-03-15 11:47:00,
2013-03-15 07:49:00,31.0,28.9,29.14,WSW,247,7.0,9.0,92,0.00,,,0.00,WUHU216DAVISVP2,2013-03-15 11:49:00,
2013-03-15 07:52:00,31.0,28.9,29.14,WSW,256,8.0,13.0,92,0.00,,,0.00,WUHU216DAVISVP2,2013-03-15 11:52:00,
2013-03-15 07:53:00,31.0,28.9,29.14,WSW,250,1.0,13.0,92,0.00,,,0.00,WUHU216DAVISVP2,2013-03-15 11:53:00,
2013-03-15 07:54:00,31.0,28.9,29.14,SW,226,4.0,13.0,92,0.00,,,0.00,WUHU216DAVISVP2,2013-03-15 11:54:00,
2013-03-15 07:57:00,31.1,29.0,29.14,WSW,253,6.0,13.0,92,0.00,,,0.00,WUHU216DAVISVP2,2013-03-15 11:57:00,
2013-03-15 07:58:00,31.1,29.0,29.14,WSW,249,7.0,13.0,92,0.00,,,0.00,WUHU216DAVISVP2,2013-03-15 11:58:00,
2013-03-15 07:59:00,31.1,29.0,29.14,WSW,252,6.0,13.0,92,0.00,,,0.00,WUHU216DAVISVP2,2013-03-15 11:59:00,
2013-03-15 08:02:00,31.1,29.0,29.14,WSW,248,7.0,13.0,92,0.00,,,0.00,WUHU216DAVISVP2,2013-03-15 12:02:00,
2013-03-15 08:03:00,31.1,29.0,29.14,WSW,247,8.0,13.0,92,0.00,,,0.00,WUHU216DAVISVP2,2013-03-15 12:03:00,
2013-03-15 08:04:00,31.1,29.0,29.14,WSW,243,5.0,13.0,92,0.00,,,0.00,WUHU216DAVISVP2,2013-03-15 12:04:00,
2013-03-15 08:07:00,31.1,29.0,29.14,WSW,238,10.0,13.0,92,0.00,,,0.00,WUHU216DAVISVP2,2013-03-15 12:07:00,
2013-03-15 08:08:00,31.2,29.1,29.14,WSW,238,6.0,13.0,92,0.00,,,0.00,WUHU216DAVISVP2,2013-03-15 12:08:00,
2013-03-15 08:10:00,31.2,29.1,29.14,WSW,251,4.0,11.0,92,0.00,,,0.00,WUHU216DAVISVP2,2013-03-15 12:10:00,
2013-03-15 08:12:00,31.2,29.1,29.14,WSW,245,7.0,11.0,92,0.00,,,0.00,WUHU216DAVISVP2,2013-03-15 12:12:00,
2013-03-15 08:13:00,31.2,29.1,29.14,WSW,255,6.0,11.0,92,0.00,,,0.00,WUHU216DAVISVP2,2013-03-15 12:13:00,
2013-03-15 08:15:00,31.2,29.1,29.14,West,260,7.0,11.0,92,0.00,,,0.00,WUHU216DAVISVP2,2013-03-15 12:15:00,
2013-03-15 08:18:00,31.3,29.2,29.14,SW,234,5.0,11.0,92,0.00,,,0.00,WUHU216DAVISVP2,2013-03-15 12:18:00,
2013-03-15 08:20:00,31.3,29.2,29.14,WSW,251,7.0,11.0,92,0.00,,,0.00,WUHU216DAVISVP2,2013-03-15 12:20:00,
2013-03-15 08:23:00,31.3,29.2,29.14,WSW,252,6.0,11.0,92,0.00,,,0.00,WUHU216DAVISVP2,2013-03-15 12:23:00,
2013-03-15 08:25:00,31.4,29.3,29.15,WSW,249,8.0,10.0,92,0.00,,,0.00,WUHU216DAVISVP2,2013-03-15 12:25:00,
2013-03-15 08:28:00,31.4,29.3,29.15,WSW,238,3.0,10.0,92,0.00,,,0.00,WUHU216DAVISVP2,2013-03-15 12:28:00,
2013-03-15 08:29:00,31.4,29.3,29.15,WSW,237,6.0,10.0,92,0.00,,,0.00,WUHU216DAVISVP2,2013-03-15 12:29:00,
2013-03-15 08:30:00,31.5,29.4,29.15,WSW,246,3.0,10.0,92,0.00,,,0.00,WUHU216DAVISVP2,2013-03-15 12:30:00,
2013-03-15 08:33:00,31.5,29.4,29.15,WSW,251,2.0,12.0,92,0.00,,,0.00,WUHU216DAVISVP2,2013-03-15 12:33:00,
2013-03-15 08:34:00,31.5,29.4,29.15,WSW,249,4.0,12.0,92,0.00,,,0.00,WUHU216DAVISVP2,2013-03-15 12:34:00,
2013-03-15 08:35:00,31.6,29.5,29.15,WSW,241,6.0,12.0,92,0.00,,,0.00,WUHU216DAVISVP2,2013-03-15 12:35:00,
2013-03-15 08:38:00,31.6,29.5,29.15,WSW,245,1.0,12.0,92,0.00,,,0.00,WUHU216DAVISVP2,2013-03-15 12:38:00,
2013-03-15 08:39:00,31.6,29.5,29.15,WSW,248,2.0,12.0,92,0.00,,,0.00,WUHU216DAVISVP2,2013-03-15 12:39:00,
2013-03-15 08:40:00,31.7,29.6,29.15,WSW,249,3.0,12.0,92,0.00,,,0.00,WUHU216DAVISVP2,2013-03-15 12:40:00,
2013-03-15 08:43:00,31.7,29.6,29.15,WSW,241,5.0,12.0,92,0.00,,,0.00,WUHU216DAVISVP2,2013-03-15 12:43:00,
2013-03-15 08:44:00,31.8,29.7,29.15,WSW,241,1.0,12.0,92,0.00,,,0.00,WUHU216DAVISVP2,2013-03-15 12:44:00,
2013-03-15 08:46:00,31.8,29.7,29.15,WSW,254,5.0,12.0,92,0.00,,,0.00,WUHU216DAVISVP2,2013-03-15 12:46:00,
2013-03-15 08:48:00,31.8,29.7,29.15,WSW,254,5.0,12.0,92,0.00,,,0.00,WUHU216DAVISVP2,2013-03-15 12:48:00,
2013-03-15 08:49:00,31.8,29.7,29.15,WSW,254,4.0,12.0,92,0.00,,,0.00,WUHU216DAVISVP2,2013-03-15 12:49:00,
2013-03-15 08:52:00,31.9,29.8,29.14,WSW,254,5.0,11.0,92,0.00,,,0.00,WUHU216DAVISVP2,2013-03-15 12:52:00,
2013-03-15 08:53:00,31.9,29.8,29.14,WSW,254,2.0,11.0,92,0.00,,,0.00,WUHU216DAVISVP2,2013-03-15 12:53:00,
2013-03-15 08:54:00,31.9,29.8,29.14,WSW,254,2.0,11.0,92,0.00,,,0.00,WUHU216DAVISVP2,2013-03-15 12:54:00,
2013-03-15 08:57:00,32.0,29.9,29.14,WSW,258,9.0,11.0,92,0.00,,,0.00,WUHU216DAVISVP2,2013-03-15 12:57:00,
2013-03-15 08:59:00,32.1,30.0,29.14,WSW,258,6.0,11.0,92,0.00,,,0.00,WUHU216DAVISVP2,2013-03-15 12:59:00,
2013-03-15 09:02:00,32.1,30.0,29.14,WSW,256,6.0,9.0,92,0.00,,,0.00,WUHU216DAVISVP2,2013-03-15 13:02:00,
2013-03-15 09:04:00,32.2,30.1,29.14,WSW,247,6.0,11.0,92,0.00,,,0.00,WUHU216DAVISVP2,2013-03-15 13:04:00,
2013-03-15 09:07:00,32.3,29.9,29.14,WSW,251,9.0,11.0,91,0.00,,,0.00,WUHU216DAVISVP2,2013-03-15 13:07:00,
2013-03-15 09:09:00,32.3,29.9,29.14,West,260,6.0,11.0,91,0.00,,,0.00,WUHU216DAVISVP2,2013-03-15 13:09:00,
2013-03-15 09:13:00,32.4,30.3,29.14,WSW,256,9.0,16.0,92,0.00,,,0.00,WUHU216DAVISVP2,2013-03-15 13:13:00,
2013-03-15 09:14:00,32.4,30.0,29.14,WSW,242,4.0,16.0,91,0.00,,,0.00,WUHU216DAVISVP2,2013-03-15 13:14:00,
2013-03-15 09:15:00,32.4,30.0,29.14,WSW,243,5.0,16.0,91,0.00,,,0.00,WUHU216DAVISVP2,2013-03-15 13:15:00,
2013-03-15 09:18:00,32.5,30.1,29.14,WSW,243,4.0,16.0,91,0.00,,,0.00,WUHU216DAVISVP2,2013-03-15 13:18:00,
2013-03-15 09:19:00,32.5,30.1,29.14,WSW,243,9.0,16.0,91,0.00,,,0.00,WUHU216DAVISVP2,2013-03-15 13:19:00,
2013-03-15 09:20:00,32.5,30.1,29.14,WSW,251,8.0,16.0,91,0.00,,,0.00,WUHU216DAVISVP2,2013-03-15 13:20:00,
2013-03-15 09:23:00,32.6,30.2,29.14,WSW,242,9.0,16.0,91,0.00,,,0.00,WUHU216DAVISVP2,2013-03-15 13:23:00,
2013-03-15 09:24:00,32.6,30.2,29.14,SW,224,4.0,16.0,91,0.00,,,0.00,WUHU216DAVISVP2,2013-03-15 13:24:00,
2013-03-15 09:25:00,32.6,30.2,29.14,SW,224,1.0,16.0,91,0.00,,,0.00,WUHU216DAVISVP2,2013-03-15 13:25:00,
2013-03-15 09:28:00,32.7,30.3,29.14,SW,229,5.0,16.0,91,0.00,,,0.00,WUHU216DAVISVP2,2013-03-15 13:28:00,
2013-03-15 09:29:00,32.7,30.3,29.14,SW,235,7.0,16.0,91,0.00,,,0.00,WUHU216DAVISVP2,2013-03-15 13:29:00,
2013-03-15 09:30:00,32.7,30.3,29.13,WSW,237,5.0,16.0,91,0.00,,,0.00,WUHU216DAVISVP2,2013-03-15 13:30:00,
2013-03-15 09:33:00,32.8,30.4,29.13,WSW,241,8.0,10.0,91,0.00,,,0.00,WUHU216DAVISVP2,2013-03-15 13:33:00,
2013-03-15 09:34:00,32.8,30.4,29.13,WSW,241,4.0,10.0,91,0.00,,,0.00,WUHU216DAVISVP2,2013-03-15 13:34:00,
2013-03-15 09:35:00,32.8,30.4,29.13,WSW,241,4.0,10.0,91,0.00,,,0.00,WUHU216DAVISVP2,2013-03-15 13:35:00,
2013-03-15 09:38:00,32.9,30.5,29.14,SW,218,5.0,12.0,91,0.00,,,0.00,WUHU216DAVISVP2,2013-03-15 13:38:00,
2013-03-15 09:39:00,33.0,30.3,29.14,WSW,247,7.0,14.0,90,0.00,,,0.00,WUHU216DAVISVP2,2013-03-15 13:39:00,
2013-03-15 09:40:00,33.0,30.3,29.14,West,262,7.0,14.0,90,0.00,,,0.00,WUHU216DAVISVP2,2013-03-15 13:40:00,
2013-03-15 09:41:00,33.1,30.4,29.13,WSW,253,8.0,14.0,90,0.00,,,0.00,WUHU216DAVISVP2,2013-03-15 13:41:00,
2013-03-15 09:43:00,33.2,30.5,29.14,WSW,253,5.0,14.0,90,0.00,,,0.00,WUHU216DAVISVP2,2013-03-15 13:43:00,
2013-03-15 09:44:00,33.2,30.5,29.14,WSW,258,7.0,14.0,90,0.00,,,0.00,WUHU216DAVISVP2,2013-03-15 13:44:00,
2013-03-15 09:45:00,33.3,30.6,29.14,West,267,5.0,14.0,90,0.00,,,0.00,WUHU216DAVISVP2,2013-03-15 13:45:00,
2013-03-15 09:47:00,33.4,30.7,29.13,WSW,249,9.0,14.0,90,0.00,,,0.00,WUHU216DAVISVP2,2013-03-15 13:47:00,
2013-03-15 09:48:00,33.4,30.7,29.13,WSW,257,5.0,14.0,90,0.00,,,0.00,WUHU216DAVISVP2,2013-03-15 13:48:00,
2013-03-15 09:49:00,33.5,30.8,29.13,SW,221,1.0,14.0,90,0.00,,,0.00,WUHU216DAVISVP2,2013-03-15 13:49:00,
2013-03-15 09:50:00,33.6,30.9,29.13,SW,228,5.0,14.0,90,0.00,,,0.00,WUHU216DAVISVP2,2013-03-15 13:50:00,
2013-03-15 09:52:00,33.6,30.9,29.13,WSW,249,7.0,14.0,90,0.00,,,0.00,WUHU216DAVISVP2,2013-03-15 13:52:00,
2013-03-15 09:53:00,33.7,31.0,29.13,WSW,251,8.0,15.0,90,0.00,,,0.00,WUHU216DAVISVP2,2013-03-15 13:53:00,
2013-03-15 09:54:00,33.7,30.8,29.13,WSW,241,7.0,15.0,89,0.00,,,0.00,WUHU216DAVISVP2,2013-03-15 13:54:00,
2013-03-15 09:55:00,33.7,31.0,29.13,WSW,256,13.0,15.0,90,0.00,,,0.00,WUHU216DAVISVP2,2013-03-15 13:55:00,
2013-03-15 09:58:00,33.8,30.9,29.13,WSW,245,10.0,15.0,89,0.00,,,0.00,WUHU216DAVISVP2,2013-03-15 13:58:00,
2013-03-15 09:59:00,33.8,30.9,29.13,WSW,244,14.0,15.0,89,0.00,,,0.00,WUHU216DAVISVP2,2013-03-15 13:59:00,
2013-03-15 10:00:00,33.8,30.9,29.13,SW,222,5.0,16.0,89,0.00,,,0.00,WUHU216DAVISVP2,2013-03-15 14:00:00,
2013-03-15 10:01:00,33.8,30.9,29.13,WSW,240,11.0,16.0,89,0.00,,,0.00,WUHU216DAVISVP2,2013-03-15 14:01:00,
2013-03-15 10:03:00,33.9,31.0,29.13,SW,220,2.0,16.0,89,0.00,,,0.00,WUHU216DAVISVP2,2013-03-15 14:03:00,
2013-03-15 10:04:00,34.0,31.1,29.13,West,272,8.0,16.0,89,0.00,,,0.00,WUHU216DAVISVP2,2013-03-15 14:04:00,
2013-03-15 10:05:00,34.0,31.1,29.13,West,264,7.0,16.0,89,0.00,,,0.00,WUHU216DAVISVP2,2013-03-15 14:05:00,
2013-03-15 10:06:00,34.1,31.2,29.13,West,263,6.0,16.0,89,0.00,,,0.00,WUHU216DAVISVP2,2013-03-15 14:06:00,
2013-03-15 10:08:00,34.2,31.3,29.12,SW,234,12.0,16.0,89,0.00,,,0.00,WUHU216DAVISVP2,2013-03-15 14:08:00,
2013-03-15 10:09:00,34.3,31.1,29.12,WSW,247,15.0,16.0,88,0.00,,,0.00,WUHU216DAVISVP2,2013-03-15 14:09:00,
2013-03-15 10:10:00,34.3,31.1,29.12,SW,229,7.0,16.0,88,0.00,,,0.00,WUHU216DAVISVP2,2013-03-15 14:10:00,
2013-03-15 10:11:00,34.4,31.2,29.12,SW,226,5.0,16.0,88,0.00,,,0.00,WUHU216DAVISVP2,2013-03-15 14:11:00,
2013-03-15 10:13:00,34.4,31.2,29.12,WSW,244,8.0,16.0,88,0.00,,,0.00,WUHU216DAVISVP2,2013-03-15 14:13:00,
2013-03-15 10:14:00,34.5,31.3,29.12,WSW,256,7.0,16.0,88,0.00,,,0.00,WUHU216DAVISVP2,2013-03-15 14:14:00,
2013-03-15 10:15:00,34.6,31.4,29.12,WSW,249,10.0,16.0,88,0.00,,,0.00,WUHU216DAVISVP2,2013-03-15 14:15:00,
2013-03-15 10:17:00,34.7,31.5,29.12,SSW,208,3.0,16.0,88,0.00,,,0.00,WUHU216DAVISVP2,2013-03-15 14:17:00,
2013-03-15 10:18:00,34.7,31.5,29.12,WSW,249,12.0,16.0,88,0.00,,,0.00,WUHU216DAVISVP2,2013-03-15 14:18:00,
2013-03-15 10:19:00,34.8,31.6,29.12,WSW,250,10.0,16.0,88,0.00,,,0.00,WUHU216DAVISVP2,2013-03-15 14:19:00,
2013-03-15 10:20:00,34.8,31.3,29.12,West,261,11.0,16.0,87,0.00,,,0.00,WUHU216DAVISVP2,2013-03-15 14:20:00,
2013-03-15 10:22:00,34.8,31.3,29.12,West,266,8.0,16.0,87,0.00,,,0.00,WUHU216DAVISVP2,2013-03-15 14:22:00,
2013-03-15 10:23:00,34.9,31.4,29.12,West,262,6.0,16.0,87,0.00,,,0.00,WUHU216DAVISVP2,2013-03-15 14:23:00,
2013-03-15 10:25:00,35.0,31.5,29.12,WSW,251,12.0,16.0,87,0.00,,,0.00,WUHU216DAVISVP2,2013-03-15 14:25:00,
2013-03-15 10:27:00,35.1,31.6,29.11,West,267,6.0,16.0,87,0.00,,,0.00,WUHU216DAVISVP2,2013-03-15 14:27:00,
2013-03-15 10:28:00,35.1,31.3,29.11,WSW,246,12.0,15.0,86,0.00,,,0.00,WUHU216DAVISVP2,2013-03-15 14:28:00,
2013-03-15 10:30:00,35.1,31.3,29.12,WSW,246,12.0,15.0,86,0.00,,,0.00,WUHU216DAVISVP2,2013-03-15 14:30:00,
2013-03-15 10:33:00,35.4,31.9,29.12,West,280,6.0,15.0,87,0.00,,,0.00,WUHU216DAVISVP2,2013-03-15 14:33:00,
2013-03-15 10:35:00,35.5,31.7,29.12,West,277,6.0,14.0,86,0.00,,,0.00,WUHU216DAVISVP2,2013-03-15 14:35:00,
2013-03-15 10:38:00,35.5,31.7,29.12,WSW,239,14.0,14.0,86,0.00,,,0.00,WUHU216DAVISVP2,2013-03-15 14:38:00,
2013-03-15 10:40:00,35.5,31.7,29.12,West,262,9.0,15.0,86,0.00,,,0.00,WUHU216DAVISVP2,2013-03-15 14:40:00,
2013-03-15 10:43:00,35.6,31.8,29.11,West,266,9.0,15.0,86,0.00,,,0.00,WUHU216DAVISVP2,2013-03-15 14:43:00,
2013-03-15 10:45:00,35.8,31.7,29.12,WSW,248,6.0,15.0,85,0.00,,,0.00,WUHU216DAVISVP2,2013-03-15 14:45:00,
2013-03-15 10:46:00,35.8,31.7,29.12,WSW,255,7.0,15.0,85,0.00,,,0.00,WUHU216DAVISVP2,2013-03-15 14:46:00,
2013-03-15 10:48:00,36.1,32.0,29.12,WSW,255,7.0,15.0,85,0.00,,,0.00,WUHU216DAVISVP2,2013-03-15 14:48:00,
2013-03-15 10:49:00,36.1,32.0,29.12,WSW,256,6.0,15.0,85,0.00,,,0.00,WUHU216DAVISVP2,2013-03-15 14:49:00,
2013-03-15 10:51:00,36.2,32.1,29.12,WSW,252,7.0,15.0,85,0.00,,,0.00,WUHU216DAVISVP2,2013-03-15 14:51:00,
2013-03-15 10:54:00,36.3,32.2,29.12,WSW,239,6.0,15.0,85,0.00,,,0.00,WUHU216DAVISVP2,2013-03-15 14:54:00,
2013-03-15 10:56:00,36.6,32.5,29.12,West,267,6.0,15.0,85,0.00,,,0.00,WUHU216DAVISVP2,2013-03-15 14:56:00,
2013-03-15 10:59:00,36.8,32.4,29.12,West,259,9.0,14.0,84,0.00,,,0.00,WUHU216DAVISVP2,2013-03-15 14:59:00,
2013-03-15 11:00:00,36.8,32.4,29.12,West,272,8.0,14.0,84,0.00,,,0.00,WUHU216DAVISVP2,2013-03-15 15:00:00,
2013-03-15 11:01:00,36.8,32.1,29.12,WSW,258,9.0,14.0,83,0.00,,,0.00,WUHU216DAVISVP2,2013-03-15 15:01:00,
2013-03-15 11:04:00,36.9,32.2,29.13,WSW,245,10.0,13.0,83,0.00,,,0.00,WUHU216DAVISVP2,2013-03-15 15:04:00,
2013-03-15 11:06:00,37.0,32.3,29.13,WSW,258,8.0,12.0,83,0.00,,,0.00,WUHU216DAVISVP2,2013-03-15 15:06:00,
2013-03-15 11:09:00,37.1,32.4,29.13,WNW,283,10.0,12.0,83,0.00,,,0.00,WUHU216DAVISVP2,2013-03-15 15:09:00,
2013-03-15 11:11:00,37.2,32.5,29.13,WNW,290,11.0,13.0,83,0.00,,,0.00,WUHU216DAVISVP2,2013-03-15 15:11:00,
2013-03-15 11:12:00,37.2,32.2,29.12,WNW,286,11.0,13.0,82,0.00,,,0.00,WUHU216DAVISVP2,2013-03-15 15:12:00,
2013-03-15 11:14:00,37.2,32.2,29.12,West,268,7.0,13.0,82,0.00,,,0.00,WUHU216DAVISVP2,2013-03-15 15:14:00,
2013-03-15 11:15:00,37.2,32.5,29.12,West,277,7.0,13.0,83,0.00,,,0.00,WUHU216DAVISVP2,2013-03-15 15:15:00,
2013-03-15 11:17:00,37.4,32.7,29.12,WNW,294,6.0,13.0,83,0.00,,,0.00,WUHU216DAVISVP2,2013-03-15 15:17:00,
2013-03-15 11:19:00,37.5,32.8,29.12,WNW,293,4.0,13.0,83,0.00,,,0.00,WUHU216DAVISVP2,2013-03-15 15:19:00,
2013-03-15 11:20:00,37.7,33.0,29.12,WNW,302,9.0,13.0,83,0.00,,,0.00,WUHU216DAVISVP2,2013-03-15 15:20:00,
2013-03-15 11:22:00,37.7,32.7,29.12,WNW,293,9.0,13.0,82,0.00,,,0.00,WUHU216DAVISVP2,2013-03-15 15:22:00,
2013-03-15 11:24:00,37.5,32.5,29.12,West,276,9.0,13.0,82,0.00,,,0.00,WUHU216DAVISVP2,2013-03-15 15:24:00,
2013-03-15 11:25:00,37.6,32.6,29.12,West,274,8.0,13.0,82,0.00,,,0.00,WUHU216DAVISVP2,2013-03-15 15:25:00,
2013-03-15 11:28:00,37.6,32.6,29.11,WSW,254,8.0,13.0,82,0.00,,,0.00,WUHU216DAVISVP2,2013-03-15 15:28:00,
2013-03-15 11:29:00,37.7,32.7,29.12,WSW,256,9.0,13.0,82,0.00,,,0.00,WUHU216DAVISVP2,2013-03-15 15:29:00,
2013-03-15 11:30:00,37.7,32.7,29.11,SW,233,6.0,13.0,82,0.00,,,0.00,WUHU216DAVISVP2,2013-03-15 15:30:00,
2013-03-15 11:33:00,37.5,32.2,29.11,West,268,9.0,13.0,81,0.00,,,0.00,WUHU216DAVISVP2,2013-03-15 15:33:00,
2013-03-15 11:34:00,37.5,32.5,29.11,WNW,296,8.0,13.0,82,0.00,,,0.00,WUHU216DAVISVP2,2013-03-15 15:34:00,
2013-03-15 11:35:00,37.5,32.5,29.11,WNW,283,9.0,13.0,82,0.00,,,0.00,WUHU216DAVISVP2,2013-03-15 15:35:00,
2013-03-15 11:38:00,37.5,32.5,29.11,West,260,5.0,13.0,82,0.00,,,0.00,WUHU216DAVISVP2,2013-03-15 15:38:00,
2013-03-15 11:39:00,37.6,32.6,29.11,WNW,283,7.0,12.0,82,0.00,,,0.00,WUHU216DAVISVP2,2013-03-15 15:39:00,
2013-03-15 11:40:00,37.6,32.6,29.11,West,261,10.0,12.0,82,0.00,,,0.00,WUHU216DAVISVP2,2013-03-15 15:40:00,
2013-03-15 11:43:00,37.5,32.5,29.11,West,278,4.0,12.0,82,0.00,,,0.00,WUHU216DAVISVP2,2013-03-15 15:43:00,
2013-03-15 11:44:00,37.6,32.6,29.11,WSW,253,6.0,12.0,82,0.00,,,0.00,WUHU216DAVISVP2,2013-03-15 15:44:00,
2013-03-15 11:45:00,37.7,32.7,29.11,West,263,7.0,12.0,82,0.00,,,0.00,WUHU216DAVISVP2,2013-03-15 15:45:00,
2013-03-15 11:48:00,37.8,32.8,29.11,West,263,9.0,12.0,82,0.00,,,0.00,WUHU216DAVISVP2,2013-03-15 15:48:00,
2013-03-15 11:50:00,37.7,32.4,29.11,West,272,7.0,12.0,81,0.00,,,0.00,WUHU216DAVISVP2,2013-03-15 15:50:00,
2013-03-15 11:53:00,37.8,32.8,29.11,WSW,257,8.0,12.0,82,0.00,,,0.00,WUHU216DAVISVP2,2013-03-15 15:53:00,
2013-03-15 11:54:00,37.9,32.9,29.11,WSW,239,10.0,12.0,82,0.00,,,0.00,WUHU216DAVISVP2,2013-03-15 15:54:00,
2013-03-15 11:55:00,37.9,32.9,29.11,West,261,8.0,12.0,82,0.00,,,0.00,WUHU216DAVISVP2,2013-03-15 15:55:00,
2013-03-15 11:56:00,37.9,32.6,29.11,West,263,10.0,11.0,81,0.00,,,0.00,WUHU216DAVISVP2,2013-03-15 15:56:00,
2013-03-15 11:59:00,37.9,32.6,29.10,West,264,9.0,11.0,81,0.00,,,0.00,WUHU216DAVISVP2,2013-03-15 15:59:00,
2013-03-15 12:00:00,37.9,32.6,29.10,West,268,5.0,11.0,81,0.00,,,0.00,WUHU216DAVISVP2,2013-03-15 16:00:00,
2013-03-15 12:01:00,38.0,33.0,29.10,West,273,6.0,11.0,82,0.00,,,0.00,WUHU216DAVISVP2,2013-03-15 16:01:00,
2013-03-15 12:04:00,38.2,33.2,29.10,WSW,251,5.0,11.0,82,0.00,,,0.00,WUHU216DAVISVP2,2013-03-15 16:04:00,
2013-03-15 12:05:00,38.2,32.9,29.10,West,272,7.0,14.0,81,0.00,,,0.00,WUHU216DAVISVP2,2013-03-15 16:05:00,
2013-03-15 12:07:00,38.3,33.0,29.10,WSW,244,9.0,14.0,81,0.00,,,0.00,WUHU216DAVISVP2,2013-03-15 16:07:00,
2013-03-15 12:09:00,38.4,33.1,29.10,West,259,10.0,14.0,81,0.00,,,0.00,WUHU216DAVISVP2,2013-03-15 16:09:00,
2013-03-15 12:10:00,38.5,33.2,29.10,West,262,7.0,14.0,81,0.00,,,0.00,WUHU216DAVISVP2,2013-03-15 16:10:00,
2013-03-15 12:12:00,38.6,33.3,29.10,WSW,249,8.0,14.0,81,0.00,,,0.00,WUHU216DAVISVP2,2013-03-15 16:12:00,
2013-03-15 12:14:00,38.6,33.0,29.10,WNW,286,10.0,14.0,80,0.00,,,0.00,WUHU216DAVISVP2,2013-03-15 16:14:00,
2013-03-15 12:15:00,38.6,33.0,29.10,WNW,286,5.0,14.0,80,0.00,,,0.00,WUHU216DAVISVP2,2013-03-15 16:15:00,
2013-03-15 12:17:00,38.7,33.1,29.10,West,268,4.0,14.0,80,0.00,,,0.00,WUHU216DAVISVP2,2013-03-15 16:17:00,
2013-03-15 12:19:00,38.9,33.3,29.10,WSW,256,8.0,14.0,80,0.00,,,0.00,WUHU216DAVISVP2,2013-03-15 16:19:00,
2013-03-15 12:20:00,38.9,33.3,29.10,WSW,248,8.0,14.0,80,0.00,,,0.00,WUHU216DAVISVP2,2013-03-15 16:20:00,
2013-03-15 12:23:00,39.1,33.5,29.10,WNW,287,6.0,14.0,80,0.00,,,0.00,WUHU216DAVISVP2,2013-03-15 16:23:00,
2013-03-15 12:24:00,39.3,33.7,29.10,WNW,289,8.0,14.0,80,0.00,,,0.00,WUHU216DAVISVP2,2013-03-15 16:24:00,
2013-03-15 12:26:00,39.3,33.4,29.10,West,276,8.0,14.0,79,0.00,,,0.00,WUHU216DAVISVP2,2013-03-15 16:26:00,
2013-03-15 12:28:00,39.3,33.4,29.10,West,281,8.0,12.0,79,0.00,,,0.00,WUHU216DAVISVP2,2013-03-15 16:28:00,
2013-03-15 12:29:00,39.3,33.4,29.10,West,280,8.0,12.0,79,0.00,,,0.00,WUHU216DAVISVP2,2013-03-15 16:29:00,
2013-03-15 12:30:00,39.3,33.4,29.10,WNW,285,7.0,12.0,79,0.00,,,0.00,WUHU216DAVISVP2,2013-03-15 16:30:00,
2013-03-15 12:32:00,39.4,33.5,29.10,WNW,291,7.0,12.0,79,0.00,,,0.00,WUHU216DAVISVP2,2013-03-15 16:32:00,
2013-03-15 12:33:00,39.6,34.0,29.10,WNW,298,8.0,12.0,80,0.00,,,0.00,WUHU216DAVISVP2,2013-03-15 16:33:00,
2013-03-15 12:35:00,39.7,33.7,29.10,NW,313,4.0,12.0,79,0.00,,,0.00,WUHU216DAVISVP2,2013-03-15 16:35:00,
2013-03-15 12:37:00,40.1,34.4,29.10,WSW,241,9.0,12.0,80,0.00,,,0.00,WUHU216DAVISVP2,2013-03-15 16:37:00,
2013-03-15 12:38:00,40.3,34.3,29.10,West,261,9.0,12.0,79,0.00,,,0.00,WUHU216DAVISVP2,2013-03-15 16:38:00,
2013-03-15 12:40:00,40.6,34.6,29.10,WNW,282,9.0,12.0,79,0.00,,,0.00,WUHU216DAVISVP2,2013-03-15 16:40:00,
2013-03-15 12:42:00,40.4,33.8,29.10,WNW,293,2.0,12.0,77,0.00,,,0.00,WUHU216DAVISVP2,2013-03-15 16:42:00,
2013-03-15 12:43:00,40.4,33.8,29.10,WNW,293,1.0,12.0,77,0.00,,,0.00,WUHU216DAVISVP2,2013-03-15 16:43:00,
2013-03-15 12:45:00,40.5,34.2,29.10,WSW,244,5.0,12.0,78,0.00,,,0.00,WUHU216DAVISVP2,2013-03-15 16:45:00,
2013-03-15 12:46:00,40.5,34.2,29.10,SW,224,8.0,11.0,78,0.00,,,0.00,WUHU216DAVISVP2,2013-03-15 16:46:00,
2013-03-15 12:47:00,40.5,34.2,29.10,SW,220,3.0,11.0,78,0.00,,,0.00,WUHU216DAVISVP2,2013-03-15 16:47:00,
2013-03-15 12:48:00,40.5,33.9,29.10,SSW,206,3.0,11.0,77,0.00,,,0.00,WUHU216DAVISVP2,2013-03-15 16:48:00,
2013-03-15 12:50:00,40.7,34.4,29.10,West,274,5.0,12.0,78,0.00,,,0.00,WUHU216DAVISVP2,2013-03-15 16:50:00,
2013-03-15 12:51:00,40.8,34.5,29.10,West,268,7.0,12.0,78,0.00,,,0.00,WUHU216DAVISVP2,2013-03-15 16:51:00,
2013-03-15 12:53:00,40.7,34.1,29.10,West,260,6.0,12.0,77,0.00,,,0.00,WUHU216DAVISVP2,2013-03-15 16:53:00,
2013-03-15 12:55:00,40.8,34.5,29.10,West,270,6.0,12.0,78,0.00,,,0.00,WUHU216DAVISVP2,2013-03-15 16:55:00,
2013-03-15 12:56:00,40.8,34.5,29.10,WNW,283,4.0,12.0,78,0.00,,,0.00,WUHU216DAVISVP2,2013-03-15 16:56:00,
2013-03-15 12:58:00,41.0,34.4,29.10,WNW,288,8.0,12.0,77,0.00,,,0.00,WUHU216DAVISVP2,2013-03-15 16:58:00,
2013-03-15 12:59:00,41.0,34.4,29.10,WNW,288,7.0,12.0,77,0.00,,,0.00,WUHU216DAVISVP2,2013-03-15 16:59:00,
2013-03-15 13:00:00,40.9,34.3,29.10,WNW,287,7.0,12.0,77,0.00,,,0.00,WUHU216DAVISVP2,2013-03-15 17:00:00,
2013-03-15 13:01:00,40.9,34.3,29.10,WNW,285,7.0,12.0,77,0.00,,,0.00,WUHU216DAVISVP2,2013-03-15 17:01:00,
2013-03-15 13:03:00,40.9,34.6,29.10,WNW,288,7.0,12.0,78,0.00,,,0.00,WUHU216DAVISVP2,2013-03-15 17:03:00,
2013-03-15 13:04:00,40.9,34.6,29.10,West,279,6.0,12.0,78,0.00,,,0.00,WUHU216DAVISVP2,2013-03-15 17:04:00,
2013-03-15 13:05:00,41.0,34.4,29.10,WNW,302,6.0,12.0,77,0.00,,,0.00,WUHU216DAVISVP2,2013-03-15 17:05:00,
2013-03-15 13:06:00,40.9,35.5,29.09,WNW,301,4.0,12.0,81,0.00,,,0.00,WUHU216DAVISVP2,2013-03-15 17:06:00,
2013-03-15 13:09:00,40.9,34.6,29.09,WNW,295,4.0,10.0,78,0.00,,,0.00,WUHU216DAVISVP2,2013-03-15 17:09:00,
2013-03-15 13:10:00,40.9,34.6,29.09,SW,218,5.0,10.0,78,0.00,,,0.00,WUHU216DAVISVP2,2013-03-15 17:10:00,
2013-03-15 13:12:00,41.0,34.4,29.09,WSW,248,3.0,10.0,77,0.00,,,0.00,WUHU216DAVISVP2,2013-03-15 17:12:00,
2013-03-15 13:14:00,41.3,35.0,29.09,West,262,5.0,10.0,78,0.00,,,0.00,WUHU216DAVISVP2,2013-03-15 17:14:00,
2013-03-15 13:16:00,41.4,34.8,29.09,West,280,7.0,10.0,77,0.00,,,0.00,WUHU216DAVISVP2,2013-03-15 17:16:00,
2013-03-15 13:17:00,41.4,34.8,29.09,West,271,8.0,10.0,77,0.00,,,0.00,WUHU216DAVISVP2,2013-03-15 17:17:00,
2013-03-15 13:19:00,41.5,34.9,29.09,West,274,5.0,10.0,77,0.00,,,0.00,WUHU216DAVISVP2,2013-03-15 17:19:00,
2013-03-15 13:21:00,41.5,34.5,29.09,West,274,2.0,10.0,76,0.00,,,0.00,WUHU216DAVISVP2,2013-03-15 17:21:00,
2013-03-15 13:22:00,41.5,34.9,29.08,West,274,0.0,8.0,77,0.00,,,0.00,WUHU216DAVISVP2,2013-03-15 17:22:00,
2013-03-15 13:24:00,41.7,35.1,29.08,West,274,0.0,8.0,77,0.00,,,0.00,WUHU216DAVISVP2,2013-03-15 17:24:00,
2013-03-15 13:26:00,41.9,34.9,29.08,WSW,249,4.0,8.0,76,0.00,,,0.00,WUHU216DAVISVP2,2013-03-15 17:26:00,
2013-03-15 13:28:00,42.0,35.0,29.08,West,264,5.0,8.0,76,0.00,,,0.00,WUHU216DAVISVP2,2013-03-15 17:28:00,
2013-03-15 13:29:00,42.0,34.7,29.08,West,262,5.0,8.0,75,0.00,,,0.00,WUHU216DAVISVP2,2013-03-15 17:29:00,
2013-03-15 13:31:00,42.0,34.7,29.08,West,278,5.0,8.0,75,0.00,,,0.00,WUHU216DAVISVP2,2013-03-15 17:31:00,
2013-03-15 13:33:00,42.0,34.7,29.08,West,268,7.0,11.0,75,0.00,,,0.00,WUHU216DAVISVP2,2013-03-15 17:33:00,
2013-03-15 13:34:00,42.1,34.8,29.08,West,266,4.0,11.0,75,0.00,,,0.00,WUHU216DAVISVP2,2013-03-15 17:34:00,
2013-03-15 13:36:00,42.1,34.8,29.08,West,274,6.0,11.0,75,0.00,,,0.00,WUHU216DAVISVP2,2013-03-15 17:36:00,
2013-03-15 13:38:00,42.3,35.0,29.08,West,281,4.0,11.0,75,0.00,,,0.00,WUHU216DAVISVP2,2013-03-15 17:38:00,
2013-03-15 13:40:00,42.3,35.0,29.08,WSW,256,8.0,11.0,75,0.00,,,0.00,WUHU216DAVISVP2,2013-03-15 17:40:00,
2013-03-15 13:42:00,42.3,34.7,29.08,West,262,7.0,11.0,74,0.00,,,0.00,WUHU216DAVISVP2,2013-03-15 17:42:00,
2013-03-15 13:44:00,42.3,35.0,29.08,WSW,247,4.0,11.0,75,0.00,,,0.00,WUHU216DAVISVP2,2013-03-15 17:44:00,
2013-03-15 13:45:00,42.4,35.1,29.08,WSW,239,1.0,11.0,75,0.00,,,0.00,WUHU216DAVISVP2,2013-03-15 17:45:00,
2013-03-15 13:47:00,42.5,34.9,29.08,WSW,252,7.0,11.0,74,0.00,,,0.00,WUHU216DAVISVP2,2013-03-15 17:47:00,
2013-03-15 13:49:00,42.5,35.2,29.08,WNW,290,5.0,11.0,75,0.00,,,0.00,WUHU216DAVISVP2,2013-03-15 17:49:00,
2013-03-15 13:50:00,42.5,35.2,29.08,West,278,5.0,11.0,75,0.00,,,0.00,WUHU216DAVISVP2,2013-03-15 17:50:00,
2013-03-15 13:52:00,42.8,35.5,29.08,WNW,287,7.0,9.0,75,0.00,,,0.00,WUHU216DAVISVP2,2013-03-15 17:52:00,
2013-03-15 13:54:00,43.0,35.7,29.08,NW,305,6.0,9.0,75,0.00,,,0.00,WUHU216DAVISVP2,2013-03-15 17:54:00,
2013-03-15 13:55:00,43.1,35.8,29.08,NW,306,5.0,9.0,75,0.00,,,0.00,WUHU216DAVISVP2,2013-03-15 17:55:00,
2013-03-15 13:58:00,43.3,35.6,29.08,SW,230,7.0,10.0,74,0.00,,,0.00,WUHU216DAVISVP2,2013-03-15 17:58:00,
2013-03-15 13:59:00,43.3,35.6,29.07,West,262,8.0,10.0,74,0.00,,,0.00,WUHU216DAVISVP2,2013-03-15 17:59:00,
2013-03-15 14:00:00,43.3,35.3,29.07,West,264,8.0,10.0,73,0.00,,,0.00,WUHU216DAVISVP2,2013-03-15 18:00:00,
2013-03-15 14:03:00,43.3,35.6,29.07,West,278,2.0,10.0,74,0.00,,,0.00,WUHU216DAVISVP2,2013-03-15 18:03:00,
2013-03-15 14:04:00,43.3,35.6,29.07,West,278,1.0,10.0,74,0.00,,,0.00,WUHU216DAVISVP2,2013-03-15 18:04:00,
2013-03-15 14:05:00,43.4,35.7,29.07,West,278,4.0,10.0,74,0.00,,,0.00,WUHU216DAVISVP2,2013-03-15 18:05:00,
2013-03-15 14:08:00,43.7,35.7,29.07,West,265,8.0,10.0,73,0.00,,,0.00,WUHU216DAVISVP2,2013-03-15 18:08:00,
2013-03-15 14:10:00,43.8,35.8,29.07,West,276,8.0,10.0,73,0.00,,,0.00,WUHU216DAVISVP2,2013-03-15 18:10:00,
2013-03-15 14:11:00,43.9,35.9,29.07,West,264,4.0,10.0,73,0.00,,,0.00,WUHU216DAVISVP2,2013-03-15 18:11:00,
2013-03-15 14:14:00,44.0,35.6,29.07,WNW,287,6.0,10.0,72,0.00,,,0.00,WUHU216DAVISVP2,2013-03-15 18:14:00,
2013-03-15 14:15:00,44.0,35.6,29.07,West,276,5.0,10.0,72,0.00,,,0.00,WUHU216DAVISVP2,2013-03-15 18:15:00,
2013-03-15 14:16:00,44.0,35.6,29.07,West,276,5.0,10.0,72,0.00,,,0.00,WUHU216DAVISVP2,2013-03-15 18:16:00,
2013-03-15 14:19:00,44.3,36.3,29.07,WNW,301,5.0,9.0,73,0.00,,,0.00,WUHU216DAVISVP2,2013-03-15 18:19:00,
2013-03-15 14:20:00,44.3,35.9,29.07,West,264,6.0,10.0,72,0.00,,,0.00,WUHU216DAVISVP2,2013-03-15 18:20:00,
2013-03-15 14:21:00,44.3,35.9,29.07,WSW,247,8.0,10.0,72,0.00,,,0.00,WUHU216DAVISVP2,2013-03-15 18:21:00,
2013-03-15 14:24:00,44.4,36.0,29.06,WNW,283,5.0,10.0,72,0.00,,,0.00,WUHU216DAVISVP2,2013-03-15 18:24:00,
2013-03-15 14:25:00,44.5,36.1,29.06,NW,320,5.0,10.0,72,0.00,,,0.00,WUHU216DAVISVP2,2013-03-15 18:25:00,
2013-03-15 14:26:00,44.5,36.5,29.06,NW,312,4.0,10.0,73,0.00,,,0.00,WUHU216DAVISVP2,2013-03-15 18:26:00,
2013-03-15 14:29:00,44.8,36.1,29.06,West,274,9.0,10.0,71,0.00,,,0.00,WUHU216DAVISVP2,2013-03-15 18:29:00,
2013-03-15 14:30:00,44.9,36.2,29.06,West,280,8.0,10.0,71,0.00,,,0.00,WUHU216DAVISVP2,2013-03-15 18:30:00,
2013-03-15 14:31:00,45.0,36.6,29.06,West,273,7.0,10.0,72,0.00,,,0.00,WUHU216DAVISVP2,2013-03-15 18:31:00,
2013-03-15 14:34:00,45.1,36.3,29.06,West,278,9.0,11.0,71,0.00,,,0.00,WUHU216DAVISVP2,2013-03-15 18:34:00,
2013-03-15 14:35:00,45.1,36.3,29.06,West,272,6.0,11.0,71,0.00,,,0.00,WUHU216DAVISVP2,2013-03-15 18:35:00,
2013-03-15 14:37:00,45.1,36.0,29.06,WNW,284,8.0,11.0,70,0.00,,,0.00,WUHU216DAVISVP2,2013-03-15 18:37:00,
2013-03-15 14:40:00,45.1,36.3,29.06,WNW,288,6.0,11.0,71,0.00,,,0.00,WUHU216DAVISVP2,2013-03-15 18:40:00,
2013-03-15 14:41:00,45.1,36.3,29.06,West,277,8.0,11.0,71,0.00,,,0.00,WUHU216DAVISVP2,2013-03-15 18:41:00,
2013-03-15 14:42:00,45.2,36.1,29.06,West,278,9.0,11.0,70,0.00,,,0.00,WUHU216DAVISVP2,2013-03-15 18:42:00,
2013-03-15 14:45:00,45.2,36.1,29.06,WNW,299,6.0,11.0,70,0.00,,,0.00,WUHU216DAVISVP2,2013-03-15 18:45:00,
2013-03-15 14:46:00,45.4,36.6,29.06,NW,316,6.0,11.0,71,0.00,,,0.00,WUHU216DAVISVP2,2013-03-15 18:46:00,
2013-03-15 14:47:00,45.5,36.7,29.06,WNW,303,8.0,11.0,71,0.00,,,0.00,WUHU216DAVISVP2,2013-03-15 18:47:00,
2013-03-15 14:50:00,45.5,36.0,29.06,WNW,282,7.0,11.0,69,0.00,,,0.00,WUHU216DAVISVP2,2013-03-15 18:50:00,
2013-03-15 14:51:00,45.5,36.4,29.06,WNW,303,6.0,11.0,70,0.00,,,0.00,WUHU216DAVISVP2,2013-03-15 18:51:00,
2013-03-15 14:52:00,45.6,36.5,29.06,NW,305,6.0,11.0,70,0.00,,,0.00,WUHU216DAVISVP2,2013-03-15 18:52:00,
2013-03-15 14:55:00,45.8,36.3,29.06,West,271,7.0,11.0,69,0.00,,,0.00,WUHU216DAVISVP2,2013-03-15 18:55:00,
2013-03-15 14:56:00,46.0,37.2,29.06,WSW,254,8.0,11.0,71,0.00,,,0.00,WUHU216DAVISVP2,2013-03-15 18:56:00,
2013-03-15 14:57:00,46.1,37.0,29.06,West,266,8.0,11.0,70,0.00,,,0.00,WUHU216DAVISVP2,2013-03-15 18:57:00,
2013-03-15 15:00:00,46.1,37.0,29.06,West,280,5.0,13.0,70,0.00,,,0.00,WUHU216DAVISVP2,2013-03-15 19:00:00,
2013-03-15 15:01:00,46.3,36.8,29.06,WNW,289,11.0,13.0,69,0.00,,,0.00,WUHU216DAVISVP2,2013-03-15 19:01:00,
2013-03-15 15:02:00,46.3,36.8,29.06,WNW,298,9.0,13.0,69,0.00,,,0.00,WUHU216DAVISVP2,2013-03-15 19:02:00,
2013-03-15 15:05:00,46.1,36.6,29.06,West,272,10.0,13.0,69,0.00,,,0.00,WUHU216DAVISVP2,2013-03-15 19:05:00,
2013-03-15 15:07:00,46.1,36.6,29.06,West,274,7.0,13.0,69,0.00,,,0.00,WUHU216DAVISVP2,2013-03-15 19:07:00,
2013-03-15 15:10:00,46.4,36.9,29.05,West,267,6.0,13.0,69,0.00,,,0.00,WUHU216DAVISVP2,2013-03-15 19:10:00,
2013-03-15 15:12:00,46.5,37.0,29.06,WSW,256,8.0,13.0,69,0.00,,,0.00,WUHU216DAVISVP2,2013-03-15 19:12:00,
2013-03-15 15:15:00,46.6,36.7,29.05,West,281,6.0,13.0,68,0.00,,,0.00,WUHU216DAVISVP2,2013-03-15 19:15:00,
2013-03-15 15:17:00,46.7,36.8,29.05,WNW,282,7.0,12.0,68,0.00,,,0.00,WUHU216DAVISVP2,2013-03-15 19:17:00,
2013-03-15 15:18:00,46.6,36.7,29.05,West,277,10.0,12.0,68,0.00,,,0.00,WUHU216DAVISVP2,2013-03-15 19:18:00,
2013-03-15 15:20:00,46.7,37.2,29.05,WNW,299,7.0,12.0,69,0.00,,,0.00,WUHU216DAVISVP2,2013-03-15 19:20:00,
2013-03-15 15:22:00,46.8,37.3,29.05,WNW,287,7.0,12.0,69,0.00,,,0.00,WUHU216DAVISVP2,2013-03-15 19:22:00,
2013-03-15 15:23:00,46.7,37.2,29.05,WNW,283,6.0,12.0,69,0.00,,,0.00,WUHU216DAVISVP2,2013-03-15 19:23:00,
2013-03-15 15:26:00,46.7,36.8,29.05,WNW,286,7.0,11.0,68,0.00,,,0.00,WUHU216DAVISVP2,2013-03-15 19:26:00,
2013-03-15 15:28:00,46.6,37.1,29.05,WNW,289,5.0,11.0,69,0.00,,,0.00,WUHU216DAVISVP2,2013-03-15 19:28:00,
2013-03-15 15:29:00,46.6,37.1,29.05,West,264,5.0,11.0,69,0.00,,,0.00,WUHU216DAVISVP2,2013-03-15 19:29:00,
2013-03-15 15:31:00,46.7,37.1,29.05,West,270,9.0,11.0,69,0.00,,,0.00,WUHU216DAVISVP2,2013-03-15 19:31:00,
2013-03-15 15:33:00,46.7,37.1,29.05,WSW,254,7.0,11.0,69,0.00,,,0.00,WUHU216DAVISVP2,2013-03-15 19:33:00,
2013-03-15 15:34:00,46.8,37.2,29.05,West,268,7.0,11.0,69,0.00,,,0.00,WUHU216DAVISVP2,2013-03-15 19:34:00,
2013-03-15 15:36:00,46.9,37.3,29.04,West,271,8.0,12.0,69,0.00,,,0.00,WUHU216DAVISVP2,2013-03-15 19:36:00,
2013-03-15 15:38:00,46.9,36.9,29.04,WNW,283,7.0,12.0,68,0.00,,,0.00,WUHU216DAVISVP2,2013-03-15 19:38:00,
2013-03-15 15:39:00,47.0,37.4,29.04,West,268,6.0,12.0,69,0.00,,,0.00,WUHU216DAVISVP2,2013-03-15 19:39:00,
2013-03-15 15:40:00,47.0,37.0,29.04,West,264,7.0,12.0,68,0.00,,,0.00,WUHU216DAVISVP2,2013-03-15 19:40:00,
2013-03-15 15:41:00,47.0,37.0,29.04,WSW,247,9.0,12.0,68,0.00,,,0.00,WUHU216DAVISVP2,2013-03-15 19:41:00,
2013-03-15 15:43:00,47.1,37.1,29.04,West,267,3.0,12.0,68,0.00,,,0.00,WUHU216DAVISVP2,2013-03-15 19:43:00,
2013-03-15 15:44:00,47.2,37.2,29.04,West,267,2.0,12.0,68,0.00,,,0.00,WUHU216DAVISVP2,2013-03-15 19:44:00,
2013-03-15 15:45:00,47.2,37.2,29.04,NW,316,6.0,12.0,68,0.00,,,0.00,WUHU216DAVISVP2,2013-03-15 19:45:00,
2013-03-15 15:46:00,47.2,37.2,29.04,NW,317,5.0,12.0,68,0.00,,,0.00,WUHU216DAVISVP2,2013-03-15 19:46:00,
2013-03-15 15:48:00,47.2,37.2,29.04,WNW,303,6.0,12.0,68,0.00,,,0.00,WUHU216DAVISVP2,2013-03-15 19:48:00,
2013-03-15 15:49:00,47.2,37.5,29.04,NW,317,8.0,12.0,69,0.00,,,0.00,WUHU216DAVISVP2,2013-03-15 19:49:00,
2013-03-15 15:50:00,47.2,37.5,29.04,NW,324,9.0,12.0,69,0.00,,,0.00,WUHU216DAVISVP2,2013-03-15 19:50:00,
2013-03-15 15:51:00,47.2,37.6,29.04,NW,320,7.0,12.0,69,0.00,,,0.00,WUHU216DAVISVP2,2013-03-15 19:51:00,
2013-03-15 15:53:00,47.1,37.5,29.04,NNW,333,7.0,12.0,69,0.00,,,0.00,WUHU216DAVISVP2,2013-03-15 19:53:00,
2013-03-15 15:54:00,47.1,37.5,29.04,NW,320,5.0,11.0,69,0.00,,,0.00,WUHU216DAVISVP2,2013-03-15 19:54:00,
2013-03-15 15:55:00,47.1,37.5,29.04,NW,311,5.0,11.0,69,0.00,,,0.00,WUHU216DAVISVP2,2013-03-15 19:55:00,
2013-03-15 15:57:00,47.2,37.6,29.03,WNW,301,5.0,9.0,69,0.00,,,0.00,WUHU216DAVISVP2,2013-03-15 19:57:00,
2013-03-15 15:59:00,47.2,37.6,29.04,WNW,303,4.0,9.0,69,0.00,,,0.00,WUHU216DAVISVP2,2013-03-15 19:59:00,
2013-03-15 16:00:00,47.2,37.6,29.04,WNW,303,5.0,9.0,69,0.00,,,0.00,WUHU216DAVISVP2,2013-03-15 20:00:00,
2013-03-15 16:02:00,47.2,37.6,29.04,WNW,286,7.0,9.0,69,0.00,,,0.00,WUHU216DAVISVP2,2013-03-15 20:02:00,
2013-03-15 16:04:00,47.2,37.3,29.04,WNW,287,8.0,9.0,68,0.00,,,0.00,WUHU216DAVISVP2,2013-03-15 20:04:00,
2013-03-15 16:05:00,47.2,37.3,29.04,WNW,296,5.0,9.0,68,0.00,,,0.00,WUHU216DAVISVP2,2013-03-15 20:05:00,
2013-03-15 16:07:00,47.3,37.7,29.03,West,272,4.0,9.0,69,0.00,,,0.00,WUHU216DAVISVP2,2013-03-15 20:07:00,
2013-03-15 16:09:00,47.4,37.8,29.03,West,274,5.0,9.0,69,0.00,,,0.00,WUHU216DAVISVP2,2013-03-15 20:09:00,
2013-03-15 16:10:00,47.5,37.9,29.03,West,274,5.0,9.0,69,0.00,,,0.00,WUHU216DAVISVP2,2013-03-15 20:10:00,
2013-03-15 16:12:00,47.7,37.8,29.03,West,276,1.0,9.0,68,0.00,,,0.00,WUHU216DAVISVP2,2013-03-15 20:12:00,
2013-03-15 16:14:00,47.8,37.9,29.03,WNW,293,9.0,9.0,68,0.00,,,0.00,WUHU216DAVISVP2,2013-03-15 20:14:00,
2013-03-15 16:15:00,47.8,37.9,29.03,WNW,293,8.0,10.0,68,0.00,,,0.00,WUHU216DAVISVP2,2013-03-15 20:15:00,
2013-03-15 16:18:00,47.7,37.8,29.03,WNW,299,7.0,10.0,68,0.00,,,0.00,WUHU216DAVISVP2,2013-03-15 20:18:00,
2013-03-15 16:19:00,47.8,37.9,29.03,NW,307,6.0,10.0,68,0.00,,,0.00,WUHU216DAVISVP2,2013-03-15 20:19:00,
2013-03-15 16:20:00,47.8,37.9,29.03,WNW,283,4.0,10.0,68,0.00,,,0.00,WUHU216DAVISVP2,2013-03-15 20:20:00,
2013-03-15 16:23:00,47.9,37.6,29.03,West,262,7.0,10.0,67,0.00,,,0.00,WUHU216DAVISVP2,2013-03-15 20:23:00,
2013-03-15 16:24:00,47.9,37.6,29.03,West,272,6.0,10.0,67,0.00,,,0.00,WUHU216DAVISVP2,2013-03-15 20:24:00,
2013-03-15 16:25:00,47.9,37.6,29.03,WSW,257,6.0,10.0,67,0.00,,,0.00,WUHU216DAVISVP2,2013-03-15 20:25:00,
2013-03-15 16:28:00,47.9,37.6,29.03,WSW,258,6.0,11.0,67,0.00,,,0.00,WUHU216DAVISVP2,2013-03-15 20:28:00,
2013-03-15 16:29:00,47.9,37.6,29.03,West,260,6.0,11.0,67,0.00,,,0.00,WUHU216DAVISVP2,2013-03-15 20:29:00,
2013-03-15 16:30:00,47.9,37.6,29.03,West,260,5.0,11.0,67,0.00,,,0.00,WUHU216DAVISVP2,2013-03-15 20:30:00,
2013-03-15 16:33:00,47.9,37.6,29.02,West,266,5.0,11.0,67,0.00,,,0.00,WUHU216DAVISVP2,2013-03-15 20:33:00,
2013-03-15 16:34:00,47.9,37.6,29.03,West,275,6.0,11.0,67,0.00,,,0.00,WUHU216DAVISVP2,2013-03-15 20:34:00,
2013-03-15 16:35:00,47.9,37.6,29.02,West,280,7.0,11.0,67,0.00,,,0.00,WUHU216DAVISVP2,2013-03-15 20:35:00,
2013-03-15 16:38:00,47.9,37.6,29.02,West,270,7.0,11.0,67,0.00,,,0.00,WUHU216DAVISVP2,2013-03-15 20:38:00,
2013-03-15 16:39:00,47.8,37.5,29.02,West,262,7.0,11.0,67,0.00,,,0.00,WUHU216DAVISVP2,2013-03-15 20:39:00,
2013-03-15 16:40:00,47.8,37.5,29.02,West,277,6.0,11.0,67,0.00,,,0.00,WUHU216DAVISVP2,2013-03-15 20:40:00,
2013-03-15 16:43:00,47.7,37.4,29.02,West,265,6.0,11.0,67,0.00,,,0.00,WUHU216DAVISVP2,2013-03-15 20:43:00,
2013-03-15 16:44:00,47.7,37.4,29.02,West,263,4.0,11.0,67,0.00,,,0.00,WUHU216DAVISVP2,2013-03-15 20:44:00,
2013-03-15 16:45:00,47.7,37.8,29.03,West,263,4.0,11.0,68,0.00,,,0.00,WUHU216DAVISVP2,2013-03-15 20:45:00,
2013-03-15 16:46:00,47.7,37.8,29.03,West,276,6.0,11.0,68,0.00,,,0.00,WUHU216DAVISVP2,2013-03-15 20:46:00,
2013-03-15 16:48:00,47.8,37.9,29.03,West,267,4.0,11.0,68,0.00,,,0.00,WUHU216DAVISVP2,2013-03-15 20:48:00,
2013-03-15 16:49:00,47.8,37.9,29.03,West,266,5.0,11.0,68,0.00,,,0.00,WUHU216DAVISVP2,2013-03-15 20:49:00,
2013-03-15 16:51:00,47.9,37.9,29.03,West,266,4.0,9.0,68,0.00,,,0.00,WUHU216DAVISVP2,2013-03-15 20:51:00,
2013-03-15 16:54:00,47.8,37.9,29.03,WNW,299,5.0,9.0,68,0.00,,,0.00,WUHU216DAVISVP2,2013-03-15 20:54:00,
2013-03-15 16:56:00,47.8,37.5,29.03,West,270,4.0,10.0,67,0.00,,,0.00,WUHU216DAVISVP2,2013-03-15 20:56:00,
2013-03-15 16:59:00,47.8,37.9,29.03,West,270,1.0,10.0,68,0.00,,,0.00,WUHU216DAVISVP2,2013-03-15 20:59:00,
2013-03-15 17:01:00,47.8,37.9,29.02,West,266,4.0,10.0,68,0.00,,,0.00,WUHU216DAVISVP2,2013-03-15 21:01:00,
2013-03-15 17:02:00,47.8,37.9,29.03,West,269,1.0,10.0,68,0.00,,,0.00,WUHU216DAVISVP2,2013-03-15 21:02:00,
2013-03-15 17:04:00,47.8,38.2,29.03,West,270,2.0,10.0,69,0.00,,,0.00,WUHU216DAVISVP2,2013-03-15 21:04:00,
2013-03-15 17:05:00,47.8,38.2,29.02,West,270,4.0,10.0,69,0.00,,,0.00,WUHU216DAVISVP2,2013-03-15 21:05:00,
2013-03-15 17:06:00,47.8,37.9,29.02,West,270,4.0,10.0,68,0.00,,,0.00,WUHU216DAVISVP2,2013-03-15 21:06:00,
2013-03-15 17:07:00,47.7,38.1,29.03,WNW,293,4.0,10.0,69,0.00,,,0.00,WUHU216DAVISVP2,2013-03-15 21:07:00,
2013-03-15 17:09:00,47.7,38.5,29.03,WNW,287,6.0,10.0,70,0.00,,,0.00,WUHU216DAVISVP2,2013-03-15 21:09:00,
2013-03-15 17:10:00,47.7,38.1,29.02,WNW,301,7.0,10.0,69,0.00,,,0.00,WUHU216DAVISVP2,2013-03-15 21:10:00,
2013-03-15 17:11:00,47.6,38.0,29.03,WNW,283,6.0,10.0,69,0.00,,,0.00,WUHU216DAVISVP2,2013-03-15 21:11:00,
2013-03-15 17:13:00,47.6,38.0,29.03,WNW,287,7.0,10.0,69,0.00,,,0.00,WUHU216DAVISVP2,2013-03-15 21:13:00,
2013-03-15 17:14:00,47.5,37.9,29.03,WNW,284,6.0,8.0,69,0.00,,,0.00,WUHU216DAVISVP2,2013-03-15 21:14:00,
2013-03-15 17:15:00,47.5,37.9,29.03,WNW,282,7.0,8.0,69,0.00,,,0.00,WUHU216DAVISVP2,2013-03-15 21:15:00,
2013-03-15 17:17:00,47.4,38.2,29.03,WNW,285,5.0,8.0,70,0.00,,,0.00,WUHU216DAVISVP2,2013-03-15 21:17:00,
2013-03-15 17:18:00,47.3,38.5,29.03,West,275,7.0,8.0,71,0.00,,,0.00,WUHU216DAVISVP2,2013-03-15 21:18:00,
2013-03-15 17:19:00,47.2,38.4,29.03,West,269,5.0,8.0,71,0.00,,,0.00,WUHU216DAVISVP2,2013-03-15 21:19:00,
2013-03-15 17:20:00,47.2,38.4,29.03,West,269,6.0,8.0,71,0.00,,,0.00,WUHU216DAVISVP2,2013-03-15 21:20:00,
2013-03-15 17:22:00,47.2,38.7,29.03,West,276,7.0,8.0,72,0.00,,,0.00,WUHU216DAVISVP2,2013-03-15 21:22:00,
2013-03-15 17:23:00,47.1,39.0,29.03,West,268,7.0,9.0,73,0.00,,,0.00,WUHU216DAVISVP2,2013-03-15 21:23:00,
2013-03-15 17:24:00,47.0,38.9,29.03,West,271,7.0,9.0,73,0.00,,,0.00,WUHU216DAVISVP2,2013-03-15 21:24:00,
2013-03-15 17:25:00,47.0,38.9,29.03,West,269,6.0,9.0,73,0.00,,,0.00,WUHU216DAVISVP2,2013-03-15 21:25:00,
2013-03-15 17:27:00,46.9,39.1,29.03,WSW,250,9.0,10.0,74,0.00,,,0.00,WUHU216DAVISVP2,2013-03-15 21:27:00,
2013-03-15 17:28:00,46.9,39.1,29.03,WSW,253,9.0,11.0,74,0.00,,,0.00,WUHU216DAVISVP2,2013-03-15 21:28:00,
2013-03-15 17:30:00,46.8,39.4,29.03,West,265,7.0,11.0,75,0.00,,,0.00,WUHU216DAVISVP2,2013-03-15 21:30:00,
2013-03-15 17:32:00,46.7,39.3,29.03,West,274,1.0,11.0,75,0.00,,,0.00,WUHU216DAVISVP2,2013-03-15 21:32:00,
2013-03-15 17:33:00,46.6,39.8,29.03,West,270,6.0,11.0,77,0.00,,,0.00,WUHU216DAVISVP2,2013-03-15 21:33:00,
2013-03-15 17:35:00,46.4,39.3,29.03,West,267,6.0,11.0,76,0.00,,,0.00,WUHU216DAVISVP2,2013-03-15 21:35:00,
2013-03-15 17:37:00,46.3,39.5,29.03,West,266,6.0,11.0,77,0.00,,,0.00,WUHU216DAVISVP2,2013-03-15 21:37:00,
2013-03-15 17:38:00,46.2,39.8,29.03,West,266,3.0,11.0,78,0.00,,,0.00,WUHU216DAVISVP2,2013-03-15 21:38:00,
2013-03-15 17:40:00,46.1,39.7,29.03,West,269,5.0,11.0,78,0.00,,,0.00,WUHU216DAVISVP2,2013-03-15 21:40:00,
2013-03-15 17:42:00,46.0,39.9,29.03,West,269,5.0,11.0,79,0.01,,,0.01,WUHU216DAVISVP2,2013-03-15 21:42:00,
2013-03-15 17:43:00,45.9,39.8,29.03,West,261,5.0,11.0,79,0.01,,,0.01,WUHU216DAVISVP2,2013-03-15 21:43:00,
2013-03-15 17:46:00,45.8,39.7,29.03,West,264,5.0,11.0,79,0.01,,,0.01,WUHU216DAVISVP2,2013-03-15 21:46:00,
2013-03-15 17:47:00,45.7,39.9,29.03,West,271,5.0,9.0,80,0.01,,,0.01,WUHU216DAVISVP2,2013-03-15 21:47:00,
2013-03-15 17:49:00,45.6,40.1,29.03,West,271,2.0,9.0,81,0.01,,,0.01,WUHU216DAVISVP2,2013-03-15 21:49:00,
2013-03-15 17:51:00,45.5,40.0,29.03,WSW,256,6.0,9.0,81,0.01,,,0.01,WUHU216DAVISVP2,2013-03-15 21:51:00,
2013-03-15 17:52:00,45.5,40.0,29.03,WSW,256,1.0,9.0,81,0.01,,,0.01,WUHU216DAVISVP2,2013-03-15 21:52:00,
2013-03-15 17:53:00,45.4,40.2,29.03,WSW,256,4.0,9.0,82,0.01,,,0.01,WUHU216DAVISVP2,2013-03-15 21:53:00,
2013-03-15 17:54:00,45.4,40.2,29.03,West,263,6.0,9.0,82,0.01,,,0.01,WUHU216DAVISVP2,2013-03-15 21:54:00,
2013-03-15 17:56:00,45.3,40.1,29.03,West,259,5.0,9.0,82,0.02,,,0.02,WUHU216DAVISVP2,2013-03-15 21:56:00,
2013-03-15 17:57:00,45.2,40.0,29.03,West,263,7.0,9.0,82,0.02,,,0.02,WUHU216DAVISVP2,2013-03-15 21:57:00,
2013-03-15 17:58:00,45.2,40.0,29.03,West,264,7.0,9.0,82,0.02,,,0.02,WUHU216DAVISVP2,2013-03-15 21:58:00,
2013-03-15 17:59:00,45.1,40.2,29.03,WSW,253,9.0,10.0,83,0.02,,,0.02,WUHU216DAVISVP2,2013-03-15 21:59:00,
2013-03-15 18:01:00,45.0,40.1,29.03,West,264,7.0,10.0,83,0.02,,,0.02,WUHU216DAVISVP2,2013-03-15 22:01:00,
2013-03-15 18:02:00,45.0,40.5,29.03,West,264,4.0,10.0,84,0.02,,,0.02,WUHU216DAVISVP2,2013-03-15 22:02:00,
2013-03-15 18:03:00,45.0,40.5,29.03,West,259,10.0,10.0,84,0.02,,,0.02,WUHU216DAVISVP2,2013-03-15 22:03:00,
2013-03-15 18:05:00,44.9,40.4,29.03,West,265,7.0,12.0,84,0.02,,,0.02,WUHU216DAVISVP2,2013-03-15 22:05:00,
2013-03-15 18:07:00,44.8,40.3,29.03,WSW,258,8.0,12.0,84,0.02,,,0.02,WUHU216DAVISVP2,2013-03-15 22:07:00,
2013-03-15 18:08:00,44.7,40.2,29.03,West,269,5.0,12.0,84,0.02,,,0.02,WUHU216DAVISVP2,2013-03-15 22:08:00,
2013-03-15 18:10:00,44.7,40.5,29.03,West,267,6.0,12.0,85,0.02,,,0.02,WUHU216DAVISVP2,2013-03-15 22:10:00,
2013-03-15 18:12:00,44.6,40.4,29.03,West,269,4.0,12.0,85,0.02,,,0.02,WUHU216DAVISVP2,2013-03-15 22:12:00,
2013-03-15 18:13:00,44.6,40.4,29.03,West,268,4.0,12.0,85,0.02,,,0.02,WUHU216DAVISVP2,2013-03-15 22:13:00,
2013-03-15 18:14:00,44.6,40.4,29.03,West,269,6.0,12.0,85,0.02,,,0.02,WUHU216DAVISVP2,2013-03-15 22:14:00,
2013-03-15 18:15:00,44.5,40.6,29.03,WSW,254,6.0,12.0,86,0.02,,,0.02,WUHU216DAVISVP2,2013-03-15 22:15:00,
2013-03-15 18:18:00,44.4,40.5,29.03,West,260,4.0,12.0,86,0.02,,,0.02,WUHU216DAVISVP2,2013-03-15 22:18:00,
2013-03-15 18:19:00,44.4,40.5,29.03,WSW,249,5.0,12.0,86,0.02,,,0.02,WUHU216DAVISVP2,2013-03-15 22:19:00,
2013-03-15 18:21:00,44.4,40.5,29.03,West,272,6.0,12.0,86,0.02,,,0.02,WUHU216DAVISVP2,2013-03-15 22:21:00,
2013-03-15 18:23:00,44.3,40.6,29.03,West,261,7.0,12.0,87,0.02,,,0.02,WUHU216DAVISVP2,2013-03-15 22:23:00,
2013-03-15 18:24:00,44.3,40.6,29.02,WSW,252,5.0,11.0,87,0.03,,,0.03,WUHU216DAVISVP2,2013-03-15 22:24:00,
2013-03-15 18:26:00,44.3,40.6,29.03,West,260,5.0,11.0,87,0.03,,,0.03,WUHU216DAVISVP2,2013-03-15 22:26:00,
2013-03-15 18:28:00,44.3,40.6,29.03,West,260,5.0,11.0,87,0.03,,,0.03,WUHU216DAVISVP2,2013-03-15 22:28:00,
2013-03-15 18:29:00,44.2,40.5,29.03,West,260,6.0,11.0,87,0.03,,,0.03,WUHU216DAVISVP2,2013-03-15 22:29:00,
2013-03-15 18:31:00,44.2,40.5,29.03,West,260,3.0,11.0,87,0.03,,,0.03,WUHU216DAVISVP2,2013-03-15 22:31:00,
2013-03-15 18:33:00,44.2,40.5,29.03,WSW,258,5.0,10.0,87,0.03,,,0.03,WUHU216DAVISVP2,2013-03-15 22:33:00,
2013-03-15 18:34:00,44.2,40.5,29.03,West,259,3.0,10.0,87,0.03,,,0.03,WUHU216DAVISVP2,2013-03-15 22:34:00,
2013-03-15 18:37:00,44.2,40.8,29.02,WSW,258,1.0,10.0,88,0.03,,,0.03,WUHU216DAVISVP2,2013-03-15 22:37:00,
2013-03-15 18:38:00,44.1,40.7,29.02,WSW,258,2.0,10.0,88,0.03,,,0.03,WUHU216DAVISVP2,2013-03-15 22:38:00,
2013-03-15 18:39:00,44.2,40.8,29.02,WSW,258,1.0,10.0,88,0.03,,,0.03,WUHU216DAVISVP2,2013-03-15 22:39:00,
2013-03-15 18:42:00,44.1,40.7,29.01,WSW,258,1.0,10.0,88,0.02,,,0.03,WUHU216DAVISVP2,2013-03-15 22:42:00,
2013-03-15 18:43:00,44.1,40.7,29.01,WSW,258,0.0,9.0,88,0.02,,,0.03,WUHU216DAVISVP2,2013-03-15 22:43:00,
2013-03-15 18:44:00,44.1,40.7,29.01,WSW,258,0.0,8.0,88,0.02,,,0.03,WUHU216DAVISVP2,2013-03-15 22:44:00,
2013-03-15 18:47:00,44.1,40.7,29.01,WSW,258,0.0,8.0,88,0.02,,,0.03,WUHU216DAVISVP2,2013-03-15 22:47:00,
2013-03-15 18:48:00,44.2,40.8,29.01,WSW,258,0.0,8.0,88,0.02,,,0.03,WUHU216DAVISVP2,2013-03-15 22:48:00,
2013-03-15 18:49:00,44.2,40.8,29.01,WSW,258,3.0,8.0,88,0.02,,,0.03,WUHU216DAVISVP2,2013-03-15 22:49:00,
2013-03-15 18:52:00,44.1,40.7,29.01,WSW,258,0.0,7.0,88,0.02,,,0.03,WUHU216DAVISVP2,2013-03-15 22:52:00,
2013-03-15 18:53:00,44.2,40.8,29.01,West,259,0.0,7.0,88,0.02,,,0.03,WUHU216DAVISVP2,2013-03-15 22:53:00,
2013-03-15 18:54:00,44.1,40.7,29.02,WSW,258,0.0,7.0,88,0.01,,,0.03,WUHU216DAVISVP2,2013-03-15 22:54:00,
2013-03-15 18:55:00,44.1,40.7,29.02,WSW,258,0.0,7.0,88,0.01,,,0.03,WUHU216DAVISVP2,2013-03-15 22:55:00,
2013-03-15 18:57:00,44.1,41.0,29.02,WSW,258,0.0,4.0,89,0.01,,,0.03,WUHU216DAVISVP2,2013-03-15 22:57:00,
2013-03-15 18:59:00,44.1,41.0,29.02,WSW,258,0.0,4.0,89,0.01,,,0.03,WUHU216DAVISVP2,2013-03-15 22:59:00,
2013-03-15 19:00:00,44.1,41.0,29.02,WSW,258,1.0,4.0,89,0.01,,,0.03,WUHU216DAVISVP2,2013-03-15 23:00:00,
2013-03-15 19:02:00,44.1,41.0,29.01,WSW,258,0.0,4.0,89,0.01,,,0.03,WUHU216DAVISVP2,2013-03-15 23:02:00,
2013-03-15 19:04:00,44.0,40.9,29.01,WSW,258,0.0,4.0,89,0.01,,,0.03,WUHU216DAVISVP2,2013-03-15 23:04:00,
2013-03-15 19:05:00,44.1,41.0,29.02,WSW,258,0.0,4.0,89,0.01,,,0.03,WUHU216DAVISVP2,2013-03-15 23:05:00,
2013-03-15 19:07:00,44.1,41.0,29.02,WSW,258,1.0,4.0,89,0.01,,,0.03,WUHU216DAVISVP2,2013-03-15 23:07:00,
2013-03-15 19:09:00,44.2,41.1,29.02,WSW,258,1.0,4.0,89,0.01,,,0.03,WUHU216DAVISVP2,2013-03-15 23:09:00,
2013-03-15 19:10:00,44.2,41.1,29.02,WSW,258,2.0,4.0,89,0.01,,,0.03,WUHU216DAVISVP2,2013-03-15 23:10:00,
2013-03-15 19:13:00,44.2,41.1,29.02,WSW,258,0.0,4.0,89,0.01,,,0.03,WUHU216DAVISVP2,2013-03-15 23:13:00,
2013-03-15 19:14:00,44.2,41.1,29.02,WSW,258,0.0,4.0,89,0.01,,,0.03,WUHU216DAVISVP2,2013-03-15 23:14:00,
2013-03-15 19:15:00,44.2,41.1,29.02,WSW,258,1.0,4.0,89,0.01,,,0.03,WUHU216DAVISVP2,2013-03-15 23:15:00,
2013-03-15 19:18:00,44.3,41.2,29.01,WSW,258,0.0,4.0,89,0.01,,,0.03,WUHU216DAVISVP2,2013-03-15 23:18:00,
2013-03-15 19:19:00,44.3,41.2,29.01,WSW,258,0.0,4.0,89,0.01,,,0.03,WUHU216DAVISVP2,2013-03-15 23:19:00,
2013-03-15 19:20:00,44.3,41.2,29.01,WSW,258,0.0,4.0,89,0.01,,,0.03,WUHU216DAVISVP2,2013-03-15 23:20:00,
2013-03-15 19:23:00,44.2,41.1,29.02,WSW,258,1.0,4.0,89,0.00,,,0.03,WUHU216DAVISVP2,2013-03-15 23:23:00,
2013-03-15 19:24:00,44.3,41.2,29.01,WSW,258,1.0,4.0,89,0.00,,,0.03,WUHU216DAVISVP2,2013-03-15 23:24:00,
2013-03-15 19:25:00,44.3,41.2,29.01,WSW,258,0.0,4.0,89,0.00,,,0.03,WUHU216DAVISVP2,2013-03-15 23:25:00,
2013-03-15 19:28:00,44.2,41.1,29.01,WSW,258,2.0,4.0,89,0.00,,,0.03,WUHU216DAVISVP2,2013-03-15 23:28:00,
2013-03-15 19:29:00,44.2,41.1,29.01,WSW,258,1.0,4.0,89,0.00,,,0.03,WUHU216DAVISVP2,2013-03-15 23:29:00,
2013-03-15 19:30:00,44.2,40.8,29.01,WSW,258,1.0,4.0,88,0.00,,,0.03,WUHU216DAVISVP2,2013-03-15 23:30:00,
2013-03-15 19:33:00,44.2,40.8,29.00,WSW,258,1.0,4.0,88,0.00,,,0.03,WUHU216DAVISVP2,2013-03-15 23:33:00,
2013-03-15 19:35:00,44.2,40.8,29.00,SE,133,0.0,4.0,88,0.00,,,0.03,WUHU216DAVISVP2,2013-03-15 23:35:00,
2013-03-15 19:38:00,44.1,41.0,29.00,SE,133,1.0,4.0,89,0.00,,,0.03,WUHU216DAVISVP2,2013-03-15 23:38:00,
2013-03-15 19:40:00,44.1,41.0,29.00,SE,133,3.0,4.0,89,0.00,,,0.03,WUHU216DAVISVP2,2013-03-15 23:40:00,
2013-03-15 19:42:00,44.0,40.9,28.99,ESE,122,4.0,4.0,89,0.00,,,0.03,WUHU216DAVISVP2,2013-03-15 23:42:00,
2013-03-15 19:43:00,43.9,40.8,28.99,ESE,122,1.0,5.0,89,0.00,,,0.03,WUHU216DAVISVP2,2013-03-15 23:43:00,
2013-03-15 19:45:00,43.8,41.0,28.99,ESE,122,0.0,5.0,90,0.00,,,0.03,WUHU216DAVISVP2,2013-03-15 23:45:00,
2013-03-15 19:46:00,43.8,41.0,28.99,ESE,122,0.0,5.0,90,0.00,,,0.03,WUHU216DAVISVP2,2013-03-15 23:46:00,
2013-03-15 19:47:00,43.8,41.0,28.99,ESE,122,0.0,5.0,90,0.00,,,0.03,WUHU216DAVISVP2,2013-03-15 23:47:00,
2013-03-15 19:49:00,43.7,40.9,29.00,ESE,122,0.0,5.0,90,0.00,,,0.03,WUHU216DAVISVP2,2013-03-15 23:49:00,
2013-03-15 19:50:00,43.6,40.8,29.00,ESE,122,0.0,5.0,90,0.00,,,0.03,WUHU216DAVISVP2,2013-03-15 23:50:00,
2013-03-15 19:51:00,43.6,40.8,29.00,ESE,122,1.0,5.0,90,0.00,,,0.03,WUHU216DAVISVP2,2013-03-15 23:51:00,
2013-03-15 19:52:00,43.6,40.8,29.01,ESE,122,1.0,5.0,90,0.00,,,0.03,WUHU216DAVISVP2,2013-03-15 23:52:00,
2013-03-15 19:54:00,43.5,41.0,29.01,ESE,122,0.0,5.0,91,0.00,,,0.03,WUHU216DAVISVP2,2013-03-15 23:54:00,
2013-03-15 19:55:00,43.5,41.0,29.01,ESE,122,0.0,5.0,91,0.00,,,0.03,WUHU216DAVISVP2,2013-03-15 23:55:00,
2013-03-15 19:56:00,43.5,41.0,29.01,ESE,122,1.0,5.0,91,0.00,,,0.03,WUHU216DAVISVP2,2013-03-15 23:56:00,
2013-03-15 19:57:00,43.5,41.0,29.01,ESE,122,0.0,5.0,91,0.00,,,0.03,WUHU216DAVISVP2,2013-03-15 23:57:00,
2013-03-15 19:59:00,43.4,40.9,29.01,ESE,122,0.0,5.0,91,0.00,,,0.03,WUHU216DAVISVP2,2013-03-15 23:59:00,
2013-03-15 20:00:00,43.4,40.9,29.01,ESE,122,0.0,5.0,91,0.00,,,0.03,WUHU216DAVISVP2,2013-03-16 00:00:00,
2013-03-15 20:01:00,43.4,40.9,29.01,ESE,122,0.0,5.0,91,0.00,,,0.03,WUHU216DAVISVP2,2013-03-16 00:01:00,
2013-03-15 20:02:00,43.4,40.9,29.01,ESE,122,0.0,2.0,91,0.00,,,0.03,WUHU216DAVISVP2,2013-03-16 00:02:00,
2013-03-15 20:04:00,43.4,40.9,29.00,ESE,122,1.0,2.0,91,0.00,,,0.03,WUHU216DAVISVP2,2013-03-16 00:04:00,
2013-03-15 20:05:00,43.4,40.9,29.00,ESE,122,1.0,2.0,91,0.00,,,0.03,WUHU216DAVISVP2,2013-03-16 00:05:00,
2013-03-15 20:07:00,43.4,40.9,29.00,ESE,122,2.0,2.0,91,0.00,,,0.03,WUHU216DAVISVP2,2013-03-16 00:07:00,
2013-03-15 20:09:00,43.4,40.9,29.00,ESE,122,0.0,2.0,91,0.00,,,0.03,WUHU216DAVISVP2,2013-03-16 00:09:00,
2013-03-15 20:11:00,43.4,40.9,29.01,ESE,122,0.0,2.0,91,0.00,,,0.03,WUHU216DAVISVP2,2013-03-16 00:11:00,
2013-03-15 20:12:00,43.4,40.9,29.01,ESE,122,0.0,2.0,91,0.00,,,0.03,WUHU216DAVISVP2,2013-03-16 00:12:00,
2013-03-15 20:14:00,43.4,40.9,29.00,ESE,122,0.0,2.0,91,0.00,,,0.03,WUHU216DAVISVP2,2013-03-16 00:14:00,
2013-03-15 20:16:00,43.4,40.9,29.00,ESE,122,0.0,2.0,91,0.00,,,0.03,WUHU216DAVISVP2,2013-03-16 00:16:00,
2013-03-15 20:17:00,43.4,40.9,29.00,ESE,122,1.0,2.0,91,0.00,,,0.03,WUHU216DAVISVP2,2013-03-16 00:17:00,
2013-03-15 20:19:00,43.3,40.8,29.00,ESE,122,1.0,2.0,91,0.00,,,0.03,WUHU216DAVISVP2,2013-03-16 00:19:00,
2013-03-15 20:21:00,43.3,40.8,29.00,ESE,122,1.0,4.0,91,0.00,,,0.03,WUHU216DAVISVP2,2013-03-16 00:21:00,
2013-03-15 20:22:00,43.3,40.8,28.99,ESE,122,1.0,4.0,91,0.00,,,0.03,WUHU216DAVISVP2,2013-03-16 00:22:00,
2013-03-15 20:25:00,43.3,40.8,29.00,ESE,122,3.0,4.0,91,0.00,,,0.03,WUHU216DAVISVP2,2013-03-16 00:25:00,
2013-03-15 20:26:00,43.2,40.7,29.00,ESE,122,1.0,4.0,91,0.00,,,0.03,WUHU216DAVISVP2,2013-03-16 00:26:00,
2013-03-15 20:27:00,43.2,40.7,29.00,ESE,122,0.0,4.0,91,0.00,,,0.03,WUHU216DAVISVP2,2013-03-16 00:27:00,
2013-03-15 20:28:00,43.2,40.7,29.00,ESE,122,0.0,4.0,91,0.00,,,0.03,WUHU216DAVISVP2,2013-03-16 00:28:00,
2013-03-15 20:30:00,43.2,40.7,29.00,ESE,122,1.0,4.0,91,0.00,,,0.03,WUHU216DAVISVP2,2013-03-16 00:30:00,
2013-03-15 20:32:00,43.2,40.7,29.00,ESE,122,0.0,4.0,91,0.00,,,0.03,WUHU216DAVISVP2,2013-03-16 00:32:00,
2013-03-15 20:33:00,43.2,40.7,29.00,ESE,123,0.0,4.0,91,0.00,,,0.03,WUHU216DAVISVP2,2013-03-16 00:33:00,
2013-03-15 20:35:00,43.2,40.7,29.00,ESE,122,1.0,4.0,91,0.00,,,0.03,WUHU216DAVISVP2,2013-03-16 00:35:00,
2013-03-15 20:37:00,43.1,40.6,29.00,ESE,122,2.0,4.0,91,0.00,,,0.03,WUHU216DAVISVP2,2013-03-16 00:37:00,
2013-03-15 20:38:00,43.1,40.6,28.99,ESE,122,4.0,4.0,91,0.00,,,0.03,WUHU216DAVISVP2,2013-03-16 00:38:00,
2013-03-15 20:41:00,43.1,40.9,29.00,ESE,122,0.0,4.0,92,0.00,,,0.03,WUHU216DAVISVP2,2013-03-16 00:41:00,
2013-03-15 20:42:00,43.1,40.9,29.01,ESE,122,0.0,4.0,92,0.00,,,0.03,WUHU216DAVISVP2,2013-03-16 00:42:00,
2013-03-15 20:43:00,43.1,40.9,29.01,ESE,122,0.0,4.0,92,0.00,,,0.03,WUHU216DAVISVP2,2013-03-16 00:43:00,
2013-03-15 20:46:00,43.1,40.9,29.00,ESE,123,4.0,4.0,92,0.00,,,0.03,WUHU216DAVISVP2,2013-03-16 00:46:00,
2013-03-15 20:47:00,43.0,40.8,29.00,ESE,122,2.0,5.0,92,0.00,,,0.03,WUHU216DAVISVP2,2013-03-16 00:47:00,
2013-03-15 20:48:00,43.0,40.8,29.00,ESE,122,0.0,5.0,92,0.00,,,0.03,WUHU216DAVISVP2,2013-03-16 00:48:00,
2013-03-15 20:52:00,42.9,40.7,29.01,ESE,122,0.0,5.0,92,0.00,,,0.03,WUHU216DAVISVP2,2013-03-16 00:52:00,
2013-03-15 20:53:00,42.9,40.7,29.00,ESE,122,0.0,5.0,92,0.00,,,0.03,WUHU216DAVISVP2,2013-03-16 00:53:00,
2013-03-15 20:57:00,42.9,40.7,29.00,ESE,122,2.0,5.0,92,0.00,,,0.03,WUHU216DAVISVP2,2013-03-16 00:57:00,
2013-03-15 20:58:00,42.9,40.7,29.00,ESE,122,1.0,5.0,92,0.00,,,0.03,WUHU216DAVISVP2,2013-03-16 00:58:00,
2013-03-15 20:59:00,42.9,40.7,28.99,ESE,122,0.0,5.0,92,0.00,,,0.03,WUHU216DAVISVP2,2013-03-16 00:59:00,
2013-03-15 21:02:00,42.9,40.7,29.00,ESE,122,1.0,5.0,92,0.00,,,0.03,WUHU216DAVISVP2,2013-03-16 01:02:00,
2013-03-15 21:03:00,42.9,40.7,29.00,ESE,122,0.0,5.0,92,0.00,,,0.03,WUHU216DAVISVP2,2013-03-16 01:03:00,
2013-03-15 21:04:00,42.9,40.7,29.00,ESE,122,0.0,5.0,92,0.00,,,0.03,WUHU216DAVISVP2,2013-03-16 01:04:00,
2013-03-15 21:07:00,42.9,40.7,29.00,ESE,122,0.0,4.0,92,0.00,,,0.03,WUHU216DAVISVP2,2013-03-16 01:07:00,
2013-03-15 21:08:00,42.9,40.7,29.00,ESE,122,0.0,4.0,92,0.00,,,0.03,WUHU216DAVISVP2,2013-03-16 01:08:00,
2013-03-15 21:09:00,42.8,40.6,29.00,ESE,122,1.0,4.0,92,0.00,,,0.03,WUHU216DAVISVP2,2013-03-16 01:09:00,
2013-03-15 21:13:00,42.8,40.6,29.00,ESE,122,0.0,4.0,92,0.00,,,0.03,WUHU216DAVISVP2,2013-03-16 01:13:00,
2013-03-15 21:14:00,42.8,40.6,29.00,ESE,122,0.0,4.0,92,0.00,,,0.03,WUHU216DAVISVP2,2013-03-16 01:14:00,
2013-03-15 21:18:00,42.8,40.6,29.00,ESE,122,0.0,2.0,92,0.00,,,0.03,WUHU216DAVISVP2,2013-03-16 01:18:00,
2013-03-15 21:19:00,42.8,40.6,29.00,ESE,122,0.0,2.0,92,0.00,,,0.03,WUHU216DAVISVP2,2013-03-16 01:19:00,
2013-03-15 21:23:00,42.8,40.6,29.00,ESE,122,1.0,3.0,92,0.00,,,0.03,WUHU216DAVISVP2,2013-03-16 01:23:00,
2013-03-15 21:24:00,42.7,40.5,29.00,ESE,122,2.0,4.0,92,0.00,,,0.03,WUHU216DAVISVP2,2013-03-16 01:24:00,
2013-03-15 21:28:00,42.7,40.5,28.99,ESE,122,3.0,4.0,92,0.00,,,0.03,WUHU216DAVISVP2,2013-03-16 01:28:00,
2013-03-15 21:29:00,42.7,40.5,28.99,ESE,122,1.0,4.0,92,0.00,,,0.03,WUHU216DAVISVP2,2013-03-16 01:29:00,
2013-03-15 21:33:00,42.7,40.5,28.99,ESE,122,1.0,5.0,92,0.00,,,0.03,WUHU216DAVISVP2,2013-03-16 01:33:00,
2013-03-15 21:34:00,42.7,40.5,28.99,ESE,122,1.0,5.0,92,0.00,,,0.03,WUHU216DAVISVP2,2013-03-16 01:34:00,
2013-03-15 21:38:00,42.6,40.4,28.99,ESE,122,0.0,5.0,92,0.01,,,0.04,WUHU216DAVISVP2,2013-03-16 01:38:00,
2013-03-15 21:39:00,42.5,40.3,28.99,ESE,122,0.0,5.0,92,0.01,,,0.04,WUHU216DAVISVP2,2013-03-16 01:39:00,
2013-03-15 21:43:00,42.5,40.3,28.99,SSE,151,3.0,5.0,92,0.01,,,0.04,WUHU216DAVISVP2,2013-03-16 01:43:00,
2013-03-15 21:44:00,42.5,40.6,28.99,ESE,114,4.0,7.0,93,0.01,,,0.04,WUHU216DAVISVP2,2013-03-16 01:44:00,
2013-03-15 21:48:00,42.4,40.5,28.99,ESE,119,2.0,7.0,93,0.01,,,0.04,WUHU216DAVISVP2,2013-03-16 01:48:00,
2013-03-15 21:49:00,42.4,40.5,28.99,ESE,119,1.0,7.0,93,0.01,,,0.04,WUHU216DAVISVP2,2013-03-16 01:49:00,
2013-03-15 21:50:00,42.4,40.5,28.99,ESE,118,1.0,7.0,93,0.01,,,0.04,WUHU216DAVISVP2,2013-03-16 01:50:00,
2013-03-15 21:53:00,42.4,40.5,28.99,ESE,118,3.0,7.0,93,0.01,,,0.04,WUHU216DAVISVP2,2013-03-16 01:53:00,
2013-03-15 21:54:00,42.4,40.5,28.99,ESE,115,2.0,7.0,93,0.01,,,0.04,WUHU216DAVISVP2,2013-03-16 01:54:00,
2013-03-15 21:55:00,42.4,40.5,28.99,SE,129,4.0,7.0,93,0.01,,,0.04,WUHU216DAVISVP2,2013-03-16 01:55:00,
2013-03-15 21:58:00,42.3,40.4,28.98,SE,133,1.0,7.0,93,0.01,,,0.04,WUHU216DAVISVP2,2013-03-16 01:58:00,
2013-03-15 21:59:00,42.3,40.4,28.98,SE,133,1.0,7.0,93,0.01,,,0.04,WUHU216DAVISVP2,2013-03-16 01:59:00,
2013-03-15 22:00:00,42.3,40.4,28.98,SE,135,0.0,7.0,93,0.01,,,0.04,WUHU216DAVISVP2,2013-03-16 02:00:00,
2013-03-15 22:04:00,42.3,40.4,28.98,SE,135,1.0,6.0,93,0.01,,,0.04,WUHU216DAVISVP2,2013-03-16 02:04:00,
2013-03-15 22:05:00,42.3,40.4,28.98,SE,135,0.0,6.0,93,0.01,,,0.04,WUHU216DAVISVP2,2013-03-16 02:05:00,
2013-03-15 22:09:00,42.2,40.3,28.98,SE,135,2.0,6.0,93,0.01,,,0.04,WUHU216DAVISVP2,2013-03-16 02:09:00,
2013-03-15 22:10:00,42.2,40.3,28.98,SE,133,2.0,6.0,93,0.01,,,0.04,WUHU216DAVISVP2,2013-03-16 02:10:00,
2013-03-15 22:14:00,42.1,40.2,28.98,East,101,5.0,7.0,93,0.02,,,0.05,WUHU216DAVISVP2,2013-03-16 02:14:00,
2013-03-15 22:15:00,42.2,40.3,28.98,ESE,104,6.0,7.0,93,0.02,,,0.05,WUHU216DAVISVP2,2013-03-16 02:15:00,
2013-03-15 22:19:00,42.2,40.6,28.97,ESE,114,1.0,7.0,94,0.02,,,0.05,WUHU216DAVISVP2,2013-03-16 02:19:00,
2013-03-15 22:20:00,42.2,40.6,28.97,ESE,120,5.0,7.0,94,0.02,,,0.05,WUHU216DAVISVP2,2013-03-16 02:20:00,
2013-03-15 22:24:00,42.1,40.5,28.97,ESE,116,0.0,7.0,94,0.02,,,0.05,WUHU216DAVISVP2,2013-03-16 02:24:00,
2013-03-15 22:25:00,42.1,40.5,28.96,SSE,147,3.0,7.0,94,0.02,,,0.05,WUHU216DAVISVP2,2013-03-16 02:25:00,
2013-03-15 22:29:00,42.1,40.5,28.96,SE,139,0.0,7.0,94,0.02,,,0.05,WUHU216DAVISVP2,2013-03-16 02:29:00,
2013-03-15 22:30:00,42.1,40.5,28.96,SSE,152,4.0,7.0,94,0.02,,,0.05,WUHU216DAVISVP2,2013-03-16 02:30:00,
2013-03-15 22:34:00,42.0,40.4,28.95,SE,127,0.0,5.0,94,0.02,,,0.05,WUHU216DAVISVP2,2013-03-16 02:34:00,
2013-03-15 22:35:00,42.0,40.4,28.95,SE,127,3.0,5.0,94,0.02,,,0.05,WUHU216DAVISVP2,2013-03-16 02:35:00,
2013-03-15 22:37:00,42.0,40.4,28.95,SE,146,4.0,9.0,94,0.02,,,0.05,WUHU216DAVISVP2,2013-03-16 02:37:00,
2013-03-15 22:39:00,42.1,40.5,28.95,South,191,1.0,9.0,94,0.01,,,0.05,WUHU216DAVISVP2,2013-03-16 02:39:00,
2013-03-15 22:41:00,42.1,40.5,28.95,SE,130,3.0,9.0,94,0.01,,,0.05,WUHU216DAVISVP2,2013-03-16 02:41:00,
2013-03-15 22:42:00,42.1,40.5,28.95,South,170,2.0,9.0,94,0.01,,,0.05,WUHU216DAVISVP2,2013-03-16 02:42:00,
2013-03-15 22:44:00,42.1,40.5,28.94,SSE,165,6.0,9.0,94,0.01,,,0.05,WUHU216DAVISVP2,2013-03-16 02:44:00,
2013-03-15 22:45:00,42.1,40.5,28.94,SE,124,1.0,9.0,94,0.01,,,0.05,WUHU216DAVISVP2,2013-03-16 02:45:00,
2013-03-15 22:46:00,42.2,40.6,28.94,South,179,7.0,9.0,94,0.01,,,0.05,WUHU216DAVISVP2,2013-03-16 02:46:00,
2013-03-15 22:48:00,42.2,40.6,28.94,SSE,162,6.0,9.0,94,0.01,,,0.05,WUHU216DAVISVP2,2013-03-16 02:48:00,
2013-03-15 22:49:00,42.2,40.6,28.94,South,172,6.0,9.0,94,0.01,,,0.05,WUHU216DAVISVP2,2013-03-16 02:49:00,
2013-03-15 22:50:00,42.2,40.6,28.94,SSE,164,5.0,10.0,94,0.01,,,0.05,WUHU216DAVISVP2,2013-03-16 02:50:00,
2013-03-15 22:51:00,42.3,40.7,28.94,South,179,5.0,10.0,94,0.01,,,0.05,WUHU216DAVISVP2,2013-03-16 02:51:00,
2013-03-15 22:53:00,42.4,40.8,28.94,SSW,199,6.0,11.0,94,0.01,,,0.05,WUHU216DAVISVP2,2013-03-16 02:53:00,
2013-03-15 22:54:00,42.4,40.8,28.94,South,170,9.0,11.0,94,0.01,,,0.05,WUHU216DAVISVP2,2013-03-16 02:54:00,
2013-03-15 22:55:00,42.4,40.8,28.94,South,180,9.0,11.0,94,0.01,,,0.05,WUHU216DAVISVP2,2013-03-16 02:55:00,
2013-03-15 22:56:00,42.4,40.8,28.94,South,185,6.0,12.0,94,0.01,,,0.05,WUHU216DAVISVP2,2013-03-16 02:56:00,
2013-03-15 22:59:00,42.4,40.8,28.94,SSE,168,6.0,12.0,94,0.01,,,0.05,WUHU216DAVISVP2,2013-03-16 02:59:00,
2013-03-15 23:00:00,42.5,40.9,28.94,South,185,4.0,12.0,94,0.01,,,0.05,WUHU216DAVISVP2,2013-03-16 03:00:00,
2013-03-15 23:01:00,42.5,40.9,28.95,SSW,200,1.0,12.0,94,0.01,,,0.05,WUHU216DAVISVP2,2013-03-16 03:01:00,
2013-03-15 23:04:00,42.5,40.9,28.94,SSE,168,6.0,12.0,94,0.01,,,0.05,WUHU216DAVISVP2,2013-03-16 03:04:00,
2013-03-15 23:05:00,42.5,40.9,28.94,South,184,9.0,12.0,94,0.01,,,0.05,WUHU216DAVISVP2,2013-03-16 03:05:00,
2013-03-15 23:07:00,42.6,40.9,28.94,South,178,4.0,12.0,94,0.01,,,0.05,WUHU216DAVISVP2,2013-03-16 03:07:00,
2013-03-15 23:09:00,42.6,40.9,28.94,South,182,5.0,12.0,94,0.01,,,0.05,WUHU216DAVISVP2,2013-03-16 03:09:00,
2013-03-15 23:10:00,42.6,40.9,28.94,SSE,150,6.0,12.0,94,0.01,,,0.05,WUHU216DAVISVP2,2013-03-16 03:10:00,
2013-03-15 23:12:00,42.7,41.0,28.94,SSW,193,5.0,12.0,94,0.00,,,0.05,WUHU216DAVISVP2,2013-03-16 03:12:00,
2013-03-15 23:14:00,42.7,41.0,28.94,SSW,192,8.0,12.0,94,0.00,,,0.05,WUHU216DAVISVP2,2013-03-16 03:14:00,
2013-03-15 23:15:00,42.7,41.0,28.94,SSW,211,2.0,12.0,94,0.00,,,0.05,WUHU216DAVISVP2,2013-03-16 03:15:00,
2013-03-15 23:16:00,42.8,41.1,28.94,SW,218,1.0,12.0,94,0.00,,,0.05,WUHU216DAVISVP2,2013-03-16 03:16:00,
2013-03-15 23:17:00,42.8,40.9,28.94,WSW,243,6.0,13.0,93,0.00,,,0.05,WUHU216DAVISVP2,2013-03-16 03:17:00,
2013-03-15 23:19:00,42.9,41.0,28.94,WSW,240,10.0,13.0,93,0.01,,,0.06,WUHU216DAVISVP2,2013-03-16 03:19:00,
2013-03-15 23:20:00,42.9,41.0,28.94,South,191,8.0,13.0,93,0.01,,,0.06,WUHU216DAVISVP2,2013-03-16 03:20:00,
2013-03-15 23:21:00,43.1,41.2,28.94,SSW,212,0.0,13.0,93,0.01,,,0.06,WUHU216DAVISVP2,2013-03-16 03:21:00,
2013-03-15 23:22:00,43.1,41.2,28.94,SSW,208,1.0,13.0,93,0.01,,,0.06,WUHU216DAVISVP2,2013-03-16 03:22:00,
2013-03-15 23:24:00,43.2,41.3,28.94,SW,232,11.0,13.0,93,0.01,,,0.06,WUHU216DAVISVP2,2013-03-16 03:24:00,
2013-03-15 23:25:00,43.2,41.0,28.94,SSW,203,8.0,13.0,92,0.01,,,0.06,WUHU216DAVISVP2,2013-03-16 03:25:00,
2013-03-15 23:27:00,43.3,41.1,28.94,SSW,212,2.0,13.0,92,0.01,,,0.06,WUHU216DAVISVP2,2013-03-16 03:27:00,
2013-03-15 23:29:00,43.3,41.1,28.95,SSW,205,7.0,14.0,92,0.01,,,0.06,WUHU216DAVISVP2,2013-03-16 03:29:00,
2013-03-15 23:31:00,43.4,40.9,28.95,WSW,250,9.0,14.0,91,0.01,,,0.06,WUHU216DAVISVP2,2013-03-16 03:31:00,
2013-03-15 23:32:00,43.4,40.9,28.95,West,264,10.0,14.0,91,0.01,,,0.06,WUHU216DAVISVP2,2013-03-16 03:32:00,
2013-03-15 23:34:00,43.4,40.9,28.96,WSW,248,7.0,14.0,91,0.01,,,0.06,WUHU216DAVISVP2,2013-03-16 03:34:00,
2013-03-15 23:36:00,43.4,40.9,28.96,WSW,249,1.0,14.0,91,0.01,,,0.06,WUHU216DAVISVP2,2013-03-16 03:36:00,
2013-03-15 23:37:00,43.4,40.9,28.96,SW,236,7.0,14.0,91,0.01,,,0.06,WUHU216DAVISVP2,2013-03-16 03:37:00,
2013-03-15 23:40:00,43.5,41.0,28.95,WSW,241,7.0,14.0,91,0.01,,,0.06,WUHU216DAVISVP2,2013-03-16 03:40:00,
2013-03-15 23:41:00,43.5,41.0,28.95,South,189,8.0,14.0,91,0.01,,,0.06,WUHU216DAVISVP2,2013-03-16 03:41:00,
2013-03-15 23:42:00,43.6,40.8,28.95,WSW,241,10.0,14.0,90,0.01,,,0.06,WUHU216DAVISVP2,2013-03-16 03:42:00,
2013-03-15 23:45:00,43.9,41.1,28.95,SSW,204,20.0,20.0,90,0.01,,,0.06,WUHU216DAVISVP2,2013-03-16 03:45:00,
2013-03-15 23:46:00,44.0,40.9,28.95,SW,224,2.0,21.0,89,0.01,,,0.06,WUHU216DAVISVP2,2013-03-16 03:46:00,
2013-03-15 23:47:00,44.1,41.0,28.95,SSW,203,2.0,21.0,89,0.01,,,0.06,WUHU216DAVISVP2,2013-03-16 03:47:00,
2013-03-15 23:48:00,44.1,41.0,28.95,SSW,194,5.0,21.0,89,0.01,,,0.06,WUHU216DAVISVP2,2013-03-16 03:48:00,
2013-03-15 23:50:00,44.2,40.8,28.94,SSW,202,1.0,21.0,88,0.01,,,0.06,WUHU216DAVISVP2,2013-03-16 03:50:00,
2013-03-15 23:51:00,44.2,40.8,28.94,SSW,199,2.0,21.0,88,0.01,,,0.06,WUHU216DAVISVP2,2013-03-16 03:51:00,
2013-03-15 23:53:00,44.2,40.8,28.94,South,181,8.0,21.0,88,0.01,,,0.06,WUHU216DAVISVP2,2013-03-16 03:53:00,
2013-03-15 23:55:00,44.3,40.6,28.95,SSW,193,6.0,21.0,87,0.01,,,0.06,WUHU216DAVISVP2,2013-03-16 03:55:00,
2013-03-15 23:56:00,44.3,40.6,28.95,SW,217,6.0,21.0,87,0.01,,,0.06,WUHU216DAVISVP2,2013-03-16 03:56:00,
2013-03-15 23:58:00,44.4,40.7,28.94,WSW,246,3.0,21.0,87,0.01,,,0.06,WUHU216DAVISVP2,2013-03-16 03:58:00,